Wetterdaten: Sonntag, 02.05.2010
Datum Zeit Temp. Innen Temp. Aussen UV X Diff Temp. Feuchte Inne Feuchte Auss Sonnenschein Luftdruck Regen ab 0,1 Wind Sonnenschein Windben
02.05.2010 00:00 19,8 C 11,4 C 0,0 UV-I 0,0 C 47 % 78 % 0 % 1012,4 hPa 0,0 l/m 0,0 km/h (0 Bft) 0 min 0,0 km/h (0 Bft)
02.05.2010 00:02 19,8 C 11,3 C 0,0 UV-I 0,0 C 47 % 78 % 0 % 1012,4 hPa 0,0 l/m 0,0 km/h (0 Bft) 0 min 0,0 km/h (0 Bft)
02.05.2010 00:08 19,7 C 11,2 C 0,0 UV-I 0,0 C 47 % 78 % 0 % 1012,4 hPa 0,0 l/m 0,0 km/h (0 Bft) 0 min 0,0 km/h (0 Bft)
02.05.2010 00:10 19,8 C 11,3 C 0,0 UV-I 0,0 C 47 % 78 % 0 % 1012,4 hPa 0,0 l/m 0,0 km/h (0 Bft) 0 min 0,0 km/h (0 Bft)
02.05.2010 00:12 19,7 C 11,2 C 0,0 UV-I 0,0 C 47 % 79 % 0 % 1012,3 hPa 0,0 l/m 0,0 km/h (0 Bft) 0 min 0,0 km/h (0 Bft)
02.05.2010 00:14 19,7 C 11,2 C 0,0 UV-I 0,0 C 47 % 79 % 0 % 1012,3 hPa 0,0 l/m 0,0 km/h (0 Bft) 0 min 0,0 km/h (0 Bft)
02.05.2010 00:16 19,7 C 11,1 C 0,0 UV-I 0,0 C 47 % 79 % 0 % 1012,3 hPa 0,0 l/m 0,0 km/h (0 Bft) 0 min 0,0 km/h (0 Bft)
02.05.2010 00:18 19,7 C 11,1 C 0,0 UV-I 0,0 C 47 % 79 % 0 % 1012,3 hPa 0,0 l/m 0,0 km/h (0 Bft) 0 min 0,0 km/h (0 Bft)
02.05.2010 00:20 19,7 C 11,0 C 0,0 UV-I 0,0 C 47 % 79 % 0 % 1012,3 hPa 0,0 l/m 0,0 km/h (0 Bft) 0 min 0,0 km/h (0 Bft)
02.05.2010 00:22 19,7 C 11,0 C 0,0 UV-I 0,0 C 47 % 79 % 0 % 1012,3 hPa 0,0 l/m 0,0 km/h (0 Bft) 0 min 0,0 km/h (0 Bft)
02.05.2010 00:24 19,7 C 10,9 C 0,0 UV-I 0,0 C 47 % 79 % 0 % 1012,3 hPa 0,0 l/m 0,0 km/h (0 Bft) 0 min 0,0 km/h (0 Bft)
02.05.2010 00:28 19,7 C 10,9 C 0,0 UV-I 0,0 C 47 % 79 % 0 % 1012,3 hPa 0,0 l/m 0,0 km/h (0 Bft) 0 min 0,0 km/h (0 Bft)
02.05.2010 00:30 19,6 C 10,8 C 0,0 UV-I 0,0 C 47 % 80 % 0 % 1012,3 hPa 0,0 l/m 0,0 km/h (0 Bft) 0 min 0,0 km/h (0 Bft)
02.05.2010 00:32 19,7 C 10,7 C 0,0 UV-I 0,0 C 47 % 80 % 0 % 1012,0 hPa 0,0 l/m 0,0 km/h (0 Bft) 0 min 0,0 km/h (0 Bft)
02.05.2010 00:34 19,6 C 10,7 C 0,0 UV-I 0,0 C 47 % 80 % 0 % 1012,0 hPa 0,0 l/m 0,0 km/h (0 Bft) 0 min 0,0 km/h (0 Bft)
02.05.2010 00:36 19,6 C 10,6 C 0,0 UV-I 0,0 C 47 % 80 % 0 % 1012,0 hPa 0,0 l/m 0,0 km/h (0 Bft) 0 min 0,0 km/h (0 Bft)
02.05.2010 00:38 19,6 C 10,7 C 0,0 UV-I 0,0 C 47 % 80 % 0 % 1012,0 hPa 0,0 l/m 0,0 km/h (0 Bft) 0 min 0,0 km/h (0 Bft)
02.05.2010 00:44 19,6 C 10,4 C 0,0 UV-I 0,0 C 47 % 81 % 0 % 1012,0 hPa 0,0 l/m 0,0 km/h (0 Bft) 0 min 0,0 km/h (0 Bft)
02.05.2010 00:46 19,6 C 10,5 C 0,0 UV-I 0,0 C 47 % 81 % 0 % 1012,0 hPa 0,0 l/m 0,0 km/h (0 Bft) 0 min 0,0 km/h (0 Bft)
02.05.2010 00:50 19,6 C 10,3 C 0,0 UV-I 0,0 C 48 % 81 % 0 % 1012,0 hPa 0,0 l/m 0,0 km/h (0 Bft) 0 min 0,0 km/h (0 Bft)
02.05.2010 00:52 19,6 C 10,3 C 0,0 UV-I 0,0 C 48 % 81 % 0 % 1012,0 hPa 0,0 l/m 0,0 km/h (0 Bft) 0 min 0,0 km/h (0 Bft)
02.05.2010 00:54 19,6 C 10,2 C 0,0 UV-I 0,0 C 48 % 82 % 0 % 1012,0 hPa 0,0 l/m 0,0 km/h (0 Bft) 0 min 0,0 km/h (0 Bft)
02.05.2010 00:56 19,6 C 10,3 C 0,0 UV-I 0,0 C 48 % 82 % 0 % 1012,0 hPa 0,0 l/m 0,0 km/h (0 Bft) 0 min 0,0 km/h (0 Bft)
02.05.2010 00:58 19,6 C 10,2 C 0,0 UV-I 0,0 C 48 % 82 % 0 % 1012,0 hPa 0,0 l/m 0,0 km/h (0 Bft) 0 min 0,0 km/h (0 Bft)
02.05.2010 01:00 19,6 C 10,1 C 0,0 UV-I 0,0 C 48 % 82 % 0 % 1012,0 hPa 0,0 l/m 0,0 km/h (0 Bft) 0 min 0,0 km/h (0 Bft)
02.05.2010 01:04 19,6 C 10,0 C 0,0 UV-I 0,0 C 48 % 82 % 0 % 1012,0 hPa 0,0 l/m 0,0 km/h (0 Bft) 0 min 0,0 km/h (0 Bft)
02.05.2010 01:06 19,6 C 10,1 C 0,0 UV-I 0,0 C 48 % 82 % 0 % 1012,0 hPa 0,0 l/m 0,0 km/h (0 Bft) 0 min 0,0 km/h (0 Bft)
02.05.2010 01:08 19,5 C 10,0 C 0,0 UV-I 0,0 C 48 % 82 % 0 % 1012,0 hPa 0,0 l/m 0,0 km/h (0 Bft) 0 min 0,0 km/h (0 Bft)
02.05.2010 01:10 19,5 C 9,9 C 0,0 UV-I 0,0 C 48 % 82 % 0 % 1012,0 hPa 0,0 l/m 0,0 km/h (0 Bft) 0 min 0,0 km/h (0 Bft)
02.05.2010 01:12 19,5 C 9,9 C 0,0 UV-I 0,0 C 48 % 82 % 0 % 1011,8 hPa 0,0 l/m 0,0 km/h (0 Bft) 0 min 0,0 km/h (0 Bft)
02.05.2010 01:14 19,5 C 9,8 C 0,0 UV-I 0,0 C 48 % 83 % 0 % 1011,8 hPa 0,0 l/m 0,0 km/h (0 Bft) 0 min 0,0 km/h (0 Bft)
02.05.2010 01:16 19,5 C 9,9 C 0,0 UV-I 0,0 C 48 % 83 % 0 % 1011,8 hPa 0,0 l/m 0,0 km/h (0 Bft) 0 min 0,0 km/h (0 Bft)
02.05.2010 01:18 19,5 C 9,8 C 0,0 UV-I 0,0 C 48 % 83 % 0 % 1011,8 hPa 0,0 l/m 0,0 km/h (0 Bft) 0 min 0,0 km/h (0 Bft)
02.05.2010 01:22 19,5 C 9,7 C 0,0 UV-I 0,0 C 48 % 83 % 0 % 1011,8 hPa 0,0 l/m 0,0 km/h (0 Bft) 0 min 0,0 km/h (0 Bft)
02.05.2010 01:24 19,4 C 9,6 C 0,0 UV-I 0,0 C 48 % 83 % 0 % 1011,8 hPa 0,0 l/m 0,0 km/h (0 Bft) 0 min 0,0 km/h (0 Bft)
02.05.2010 01:26 19,4 C 9,7 C 0,0 UV-I 0,0 C 48 % 83 % 0 % 1011,8 hPa 0,0 l/m 0,0 km/h (0 Bft) 0 min 0,0 km/h (0 Bft)
02.05.2010 01:28 19,4 C 9,7 C 0,0 UV-I 0,0 C 48 % 83 % 0 % 1011,8 hPa 0,0 l/m 0,0 km/h (0 Bft) 0 min 0,0 km/h (0 Bft)
02.05.2010 01:30 19,4 C 9,5 C 0,0 UV-I 0,0 C 48 % 84 % 0 % 1011,8 hPa 0,0 l/m 0,0 km/h (0 Bft) 0 min 0,0 km/h (0 Bft)
02.05.2010 01:32 19,4 C 9,5 C 0,0 UV-I 0,0 C 48 % 84 % 0 % 1012,1 hPa 0,0 l/m 0,0 km/h (0 Bft) 0 min 0,0 km/h (0 Bft)
02.05.2010 01:34 19,4 C 9,5 C 0,0 UV-I 0,0 C 48 % 84 % 0 % 1012,1 hPa 0,0 l/m 0,0 km/h (0 Bft) 0 min 0,0 km/h (0 Bft)
02.05.2010 01:36 19,4 C 9,5 C 0,0 UV-I 0,0 C 48 % 84 % 0 % 1012,1 hPa 0,0 l/m 0,0 km/h (0 Bft) 0 min 0,0 km/h (0 Bft)
02.05.2010 01:38 19,4 C 9,5 C 0,0 UV-I 0,0 C 48 % 84 % 0 % 1012,1 hPa 0,0 l/m 0,0 km/h (0 Bft) 0 min 0,0 km/h (0 Bft)
02.05.2010 01:40 19,4 C 9,3 C 0,0 UV-I 0,0 C 48 % 84 % 0 % 1012,1 hPa 0,0 l/m 0,0 km/h (0 Bft) 0 min 0,0 km/h (0 Bft)
02.05.2010 01:42 19,4 C 9,3 C 0,0 UV-I 0,0 C 48 % 84 % 0 % 1012,1 hPa 0,0 l/m 0,0 km/h (0 Bft) 0 min 0,0 km/h (0 Bft)
02.05.2010 01:44 19,4 C 9,2 C 0,0 UV-I 0,0 C 48 % 84 % 0 % 1012,1 hPa 0,0 l/m 0,0 km/h (0 Bft) 0 min 0,0 km/h (0 Bft)
02.05.2010 01:48 19,4 C 9,3 C 0,0 UV-I 0,0 C 48 % 84 % 0 % 1012,1 hPa 0,0 l/m 0,0 km/h (0 Bft) 0 min 0,0 km/h (0 Bft)
02.05.2010 01:50 19,4 C 9,2 C 0,0 UV-I 0,0 C 48 % 85 % 0 % 1012,1 hPa 0,0 l/m 0,0 km/h (0 Bft) 0 min 0,0 km/h (0 Bft)
02.05.2010 01:52 19,4 C 9,1 C 0,0 UV-I 0,0 C 48 % 84 % 0 % 1011,9 hPa 0,0 l/m 0,0 km/h (0 Bft) 0 min 0,0 km/h (0 Bft)
02.05.2010 01:54 19,4 C 9,1 C 0,0 UV-I 0,0 C 48 % 84 % 0 % 1011,9 hPa 0,0 l/m 0,0 km/h (0 Bft) 0 min 0,0 km/h (0 Bft)
02.05.2010 01:56 19,2 C 9,1 C 0,0 UV-I 0,0 C 48 % 84 % 0 % 1011,9 hPa 0,0 l/m 0,0 km/h (0 Bft) 0 min 0,0 km/h (0 Bft)
02.05.2010 01:58 19,4 C 9,1 C 0,0 UV-I 0,0 C 48 % 85 % 0 % 1011,9 hPa 0,0 l/m 0,0 km/h (0 Bft) 0 min 0,0 km/h (0 Bft)
02.05.2010 02:00 19,2 C 9,1 C 0,0 UV-I 0,0 C 48 % 85 % 0 % 1011,9 hPa 0,0 l/m 0,0 km/h (0 Bft) 0 min 0,0 km/h (0 Bft)
02.05.2010 02:02 19,2 C 9,0 C 0,0 UV-I 0,0 C 48 % 85 % 0 % 1011,9 hPa 0,0 l/m 0,0 km/h (0 Bft) 0 min 0,0 km/h (0 Bft)
02.05.2010 02:06 19,2 C 8,9 C 0,0 UV-I 0,0 C 48 % 85 % 0 % 1011,9 hPa 0,0 l/m 0,0 km/h (0 Bft) 0 min 0,0 km/h (0 Bft)
02.05.2010 02:08 19,2 C 8,8 C 0,0 UV-I 0,0 C 48 % 85 % 0 % 1011,9 hPa 0,0 l/m 0,0 km/h (0 Bft) 0 min 0,0 km/h (0 Bft)
02.05.2010 02:10 19,2 C 8,8 C 0,0 UV-I 0,0 C 48 % 85 % 0 % 1011,9 hPa 0,0 l/m 0,0 km/h (0 Bft) 0 min 0,0 km/h (0 Bft)
02.05.2010 02:12 19,2 C 8,8 C 0,0 UV-I 0,0 C 48 % 86 % 0 % 1012,0 hPa 0,0 l/m 0,0 km/h (0 Bft) 0 min 0,0 km/h (0 Bft)
02.05.2010 02:14 19,4 C 8,8 C 0,0 UV-I 0,0 C 48 % 86 % 0 % 1012,0 hPa 0,0 l/m 0,0 km/h (0 Bft) 0 min 0,0 km/h (0 Bft)
02.05.2010 02:16 19,2 C 8,8 C 0,0 UV-I 0,0 C 48 % 86 % 0 % 1012,0 hPa 0,0 l/m 0,0 km/h (0 Bft) 0 min 0,0 km/h (0 Bft)
02.05.2010 02:18 19,2 C 8,7 C 0,0 UV-I 0,0 C 48 % 86 % 0 % 1012,0 hPa 0,0 l/m 0,0 km/h (0 Bft) 0 min 0,0 km/h (0 Bft)
02.05.2010 02:20 19,2 C 8,7 C 0,0 UV-I 0,0 C 48 % 86 % 0 % 1012,0 hPa 0,0 l/m 0,0 km/h (0 Bft) 0 min 0,0 km/h (0 Bft)
02.05.2010 02:22 19,2 C 8,7 C 0,0 UV-I 0,0 C 48 % 86 % 0 % 1012,0 hPa 0,0 l/m 0,0 km/h (0 Bft) 0 min 0,0 km/h (0 Bft)
02.05.2010 02:24 19,3 C 8,7 C 0,0 UV-I 0,0 C 48 % 86 % 0 % 1012,0 hPa 0,0 l/m 0,0 km/h (0 Bft) 0 min 0,0 km/h (0 Bft)
02.05.2010 02:26 19,3 C 8,7 C 0,0 UV-I 0,0 C 48 % 87 % 0 % 1012,0 hPa 0,0 l/m 0,0 km/h (0 Bft) 0 min 0,0 km/h (0 Bft)
02.05.2010 02:28 19,3 C 8,7 C 0,0 UV-I 0,0 C 48 % 87 % 0 % 1012,0 hPa 0,0 l/m 0,0 km/h (0 Bft) 0 min 0,0 km/h (0 Bft)
02.05.2010 02:30 19,3 C 8,7 C 0,0 UV-I 0,0 C 48 % 87 % 0 % 1012,0 hPa 0,0 l/m 0,0 km/h (0 Bft) 0 min 0,0 km/h (0 Bft)
02.05.2010 02:32 19,3 C 8,6 C 0,0 UV-I 0,0 C 48 % 87 % 0 % 1011,9 hPa 0,0 l/m 0,0 km/h (0 Bft) 0 min 0,0 km/h (0 Bft)
02.05.2010 02:34 19,2 C 8,7 C 0,0 UV-I 0,0 C 48 % 87 % 0 % 1011,9 hPa 0,0 l/m 0,0 km/h (0 Bft) 0 min 0,0 km/h (0 Bft)
02.05.2010 02:38 19,3 C 8,6 C 0,0 UV-I 0,0 C 49 % 87 % 0 % 1011,9 hPa 0,0 l/m 0,0 km/h (0 Bft) 0 min 0,0 km/h (0 Bft)
02.05.2010 02:40 19,3 C 8,5 C 0,0 UV-I 0,0 C 49 % 87 % 0 % 1011,9 hPa 0,0 l/m 0,0 km/h (0 Bft) 0 min 0,0 km/h (0 Bft)
02.05.2010 02:42 19,2 C 8,5 C 0,0 UV-I 0,0 C 49 % 87 % 0 % 1011,9 hPa 0,0 l/m 0,0 km/h (0 Bft) 0 min 0,0 km/h (0 Bft)
02.05.2010 02:44 19,3 C 8,5 C 0,0 UV-I 0,0 C 49 % 87 % 0 % 1011,9 hPa 0,0 l/m 0,0 km/h (0 Bft) 0 min 0,0 km/h (0 Bft)
02.05.2010 02:46 19,2 C 8,4 C 0,0 UV-I 0,0 C 49 % 87 % 0 % 1011,9 hPa 0,0 l/m 0,0 km/h (0 Bft) 0 min 0,0 km/h (0 Bft)
02.05.2010 02:48 19,3 C 8,4 C 0,0 UV-I 0,0 C 49 % 87 % 0 % 1011,9 hPa 0,0 l/m 0,0 km/h (0 Bft) 0 min 0,0 km/h (0 Bft)
02.05.2010 02:50 19,2 C 8,5 C 0,0 UV-I 0,0 C 49 % 87 % 0 % 1011,9 hPa 0,0 l/m 0,0 km/h (0 Bft) 0 min 0,0 km/h (0 Bft)
02.05.2010 02:52 19,2 C 8,4 C 0,0 UV-I 0,0 C 49 % 87 % 0 % 1012,0 hPa 0,0 l/m 0,0 km/h (0 Bft) 0 min 0,0 km/h (0 Bft)
02.05.2010 02:54 19,2 C 8,4 C 0,0 UV-I 0,0 C 49 % 87 % 0 % 1012,0 hPa 0,0 l/m 0,0 km/h (0 Bft) 0 min 0,0 km/h (0 Bft)
02.05.2010 02:56 19,2 C 8,4 C 0,0 UV-I 0,0 C 49 % 87 % 0 % 1012,0 hPa 0,0 l/m 0,0 km/h (0 Bft) 0 min 0,0 km/h (0 Bft)
02.05.2010 02:58 19,2 C 8,3 C 0,0 UV-I 0,0 C 49 % 88 % 0 % 1012,0 hPa 0,0 l/m 0,0 km/h (0 Bft) 0 min 0,0 km/h (0 Bft)
02.05.2010 03:02 19,2 C 8,3 C 0,0 UV-I 0,0 C 49 % 88 % 0 % 1012,0 hPa 0,0 l/m 0,0 km/h (0 Bft) 0 min 0,0 km/h (0 Bft)
02.05.2010 03:04 19,2 C 8,3 C 0,0 UV-I 0,0 C 49 % 88 % 0 % 1012,0 hPa 0,0 l/m 0,0 km/h (0 Bft) 0 min 0,0 km/h (0 Bft)
02.05.2010 03:06 19,2 C 8,2 C 0,0 UV-I 0,0 C 49 % 88 % 0 % 1012,0 hPa 0,0 l/m 0,0 km/h (0 Bft) 0 min 0,0 km/h (0 Bft)
02.05.2010 03:08 19,2 C 8,3 C 0,0 UV-I 0,0 C 49 % 88 % 0 % 1012,0 hPa 0,0 l/m 0,0 km/h (0 Bft) 0 min 0,0 km/h (0 Bft)
02.05.2010 03:10 19,2 C 8,3 C 0,0 UV-I 0,0 C 49 % 88 % 0 % 1012,0 hPa 0,0 l/m 0,0 km/h (0 Bft) 0 min 0,0 km/h (0 Bft)
02.05.2010 03:12 19,2 C 8,3 C 0,0 UV-I 0,0 C 49 % 88 % 0 % 1012,0 hPa 0,0 l/m 0,0 km/h (0 Bft) 0 min 0,0 km/h (0 Bft)
02.05.2010 03:14 19,2 C 8,3 C 0,0 UV-I 0,0 C 49 % 88 % 0 % 1012,0 hPa 0,0 l/m 0,0 km/h (0 Bft) 0 min 0,0 km/h (0 Bft)
02.05.2010 03:16 19,2 C 8,1 C 0,0 UV-I 0,0 C 49 % 88 % 0 % 1012,0 hPa 0,0 l/m 0,0 km/h (0 Bft) 0 min 0,0 km/h (0 Bft)
02.05.2010 03:18 19,2 C 8,3 C 0,0 UV-I 0,0 C 49 % 88 % 0 % 1012,0 hPa 0,0 l/m 0,0 km/h (0 Bft) 0 min 0,0 km/h (0 Bft)
02.05.2010 03:20 19,2 C 8,1 C 0,0 UV-I 0,0 C 49 % 89 % 0 % 1012,0 hPa 0,0 l/m 0,0 km/h (0 Bft) 0 min 0,0 km/h (0 Bft)
02.05.2010 03:22 19,2 C 8,1 C 0,0 UV-I 0,0 C 49 % 89 % 0 % 1012,0 hPa 0,0 l/m 0,0 km/h (0 Bft) 0 min 0,0 km/h (0 Bft)
02.05.2010 03:24 19,2 C 8,1 C 0,0 UV-I 0,0 C 49 % 89 % 0 % 1012,0 hPa 0,0 l/m 0,0 km/h (0 Bft) 0 min 0,0 km/h (0 Bft)
02.05.2010 03:26 19,2 C 8,1 C 0,0 UV-I 0,0 C 49 % 89 % 0 % 1012,0 hPa 0,0 l/m 0,0 km/h (0 Bft) 0 min 0,0 km/h (0 Bft)
02.05.2010 03:28 19,2 C 8,1 C 0,0 UV-I 0,0 C 49 % 89 % 0 % 1012,0 hPa 0,0 l/m 0,0 km/h (0 Bft) 0 min 0,0 km/h (0 Bft)
02.05.2010 03:30 19,2 C 8,1 C 0,0 UV-I 0,0 C 49 % 89 % 0 % 1012,0 hPa 0,0 l/m 0,0 km/h (0 Bft) 0 min 0,0 km/h (0 Bft)
02.05.2010 03:34 19,2 C 8,1 C 0,0 UV-I 0,0 C 49 % 89 % 0 % 1011,9 hPa 0,0 l/m 0,0 km/h (0 Bft) 0 min 0,0 km/h (0 Bft)
02.05.2010 03:36 19,2 C 8,1 C 0,0 UV-I 0,0 C 49 % 89 % 0 % 1011,9 hPa 0,0 l/m 0,0 km/h (0 Bft) 0 min 0,0 km/h (0 Bft)
02.05.2010 03:38 19,1 C 8,1 C 0,0 UV-I 0,0 C 49 % 89 % 0 % 1011,9 hPa 0,0 l/m 0,0 km/h (0 Bft) 0 min 0,0 km/h (0 Bft)
02.05.2010 03:42 19,1 C 8,0 C 0,0 UV-I 0,0 C 49 % 89 % 0 % 1011,9 hPa 0,0 l/m 0,0 km/h (0 Bft) 0 min 0,0 km/h (0 Bft)
02.05.2010 03:44 19,1 C 8,0 C 0,0 UV-I 0,0 C 49 % 89 % 0 % 1011,9 hPa 0,0 l/m 0,0 km/h (0 Bft) 0 min 0,0 km/h (0 Bft)
02.05.2010 03:46 19,1 C 8,0 C 0,0 UV-I 0,0 C 49 % 89 % 0 % 1011,9 hPa 0,0 l/m 0,0 km/h (0 Bft) 0 min 0,0 km/h (0 Bft)
02.05.2010 03:48 19,1 C 8,0 C 0,0 UV-I 0,0 C 49 % 89 % 0 % 1011,9 hPa 0,0 l/m 0,0 km/h (0 Bft) 0 min 0,0 km/h (0 Bft)
02.05.2010 03:52 19,1 C 8,1 C 0,0 UV-I 0,0 C 49 % 89 % 0 % 1011,8 hPa 0,0 l/m 0,0 km/h (0 Bft) 0 min 0,0 km/h (0 Bft)
02.05.2010 03:54 19,1 C 8,1 C 0,0 UV-I 0,0 C 49 % 89 % 0 % 1011,8 hPa 0,0 l/m 0,0 km/h (0 Bft) 0 min 0,0 km/h (0 Bft)
02.05.2010 03:56 19,1 C 8,1 C 0,0 UV-I 0,0 C 49 % 89 % 0 % 1011,8 hPa 0,0 l/m 0,0 km/h (0 Bft) 0 min 0,0 km/h (0 Bft)
02.05.2010 03:58 19,1 C 8,1 C 0,0 UV-I 0,0 C 49 % 89 % 0 % 1011,8 hPa 0,0 l/m 0,0 km/h (0 Bft) 0 min 0,0 km/h (0 Bft)
02.05.2010 04:00 19,1 C 8,1 C 0,0 UV-I 0,0 C 49 % 89 % 0 % 1011,8 hPa 0,0 l/m 0,0 km/h (0 Bft) 0 min 0,0 km/h (0 Bft)
02.05.2010 04:02 19,1 C 8,1 C 0,0 UV-I 0,0 C 49 % 89 % 0 % 1011,8 hPa 0,0 l/m 0,0 km/h (0 Bft) 0 min 0,0 km/h (0 Bft)
02.05.2010 04:04 19,1 C 8,2 C 0,0 UV-I 0,0 C 49 % 89 % 0 % 1011,8 hPa 0,0 l/m 0,0 km/h (0 Bft) 0 min 0,0 km/h (0 Bft)
02.05.2010 04:06 19,1 C 8,3 C 0,0 UV-I 0,0 C 49 % 89 % 0 % 1011,8 hPa 0,0 l/m 0,0 km/h (0 Bft) 0 min 0,0 km/h (0 Bft)
02.05.2010 04:08 19,1 C 8,3 C 0,0 UV-I 0,0 C 49 % 89 % 0 % 1011,8 hPa 0,0 l/m 0,0 km/h (0 Bft) 0 min 0,0 km/h (0 Bft)
02.05.2010 04:10 19,1 C 8,3 C 0,0 UV-I 0,0 C 49 % 89 % 0 % 1011,8 hPa 0,0 l/m 0,0 km/h (0 Bft) 0 min 0,0 km/h (0 Bft)
02.05.2010 04:13 19,1 C 8,3 C 0,0 UV-I 0,0 C 49 % 89 % 0 % 1011,6 hPa 0,0 l/m 0,0 km/h (0 Bft) 0 min 0,0 km/h (0 Bft)
02.05.2010 04:19 19,1 C 8,2 C 0,0 UV-I 0,0 C 49 % 89 % 0 % 1011,6 hPa 0,0 l/m 0,0 km/h (0 Bft) 0 min 0,0 km/h (0 Bft)
02.05.2010 04:22 19,1 C 8,3 C 0,0 UV-I 0,0 C 49 % 89 % 0 % 1011,6 hPa 0,0 l/m 0,0 km/h (0 Bft) 0 min 0,0 km/h (0 Bft)
02.05.2010 04:24 19,0 C 8,3 C 0,0 UV-I 0,0 C 49 % 89 % 0 % 1011,6 hPa 0,0 l/m 0,0 km/h (0 Bft) 0 min 0,0 km/h (0 Bft)
02.05.2010 04:26 19,1 C 8,2 C 0,0 UV-I 0,0 C 49 % 89 % 0 % 1011,6 hPa 0,0 l/m 0,0 km/h (0 Bft) 0 min 0,0 km/h (0 Bft)
02.05.2010 04:28 19,1 C 8,2 C 0,0 UV-I 0,0 C 49 % 89 % 0 % 1011,6 hPa 0,0 l/m 0,0 km/h (0 Bft) 0 min 0,0 km/h (0 Bft)
02.05.2010 04:30 19,0 C 8,3 C 0,0 UV-I 0,0 C 49 % 89 % 0 % 1011,6 hPa 0,0 l/m 0,0 km/h (0 Bft) 0 min 0,0 km/h (0 Bft)
02.05.2010 04:32 19,0 C 8,3 C 0,0 UV-I 0,0 C 49 % 89 % 0 % 1011,6 hPa 0,0 l/m 0,0 km/h (0 Bft) 0 min 0,0 km/h (0 Bft)
02.05.2010 04:34 19,1 C 8,3 C 0,0 UV-I 0,0 C 49 % 89 % 0 % 1011,6 hPa 0,0 l/m 0,0 km/h (0 Bft) 0 min 0,0 km/h (0 Bft)
02.05.2010 04:36 19,0 C 8,3 C 0,0 UV-I 0,0 C 49 % 89 % 0 % 1011,6 hPa 0,0 l/m 0,0 km/h (0 Bft) 0 min 0,0 km/h (0 Bft)
02.05.2010 04:38 19,0 C 8,3 C 0,0 UV-I 0,0 C 49 % 89 % 0 % 1011,6 hPa 0,0 l/m 0,0 km/h (0 Bft) 0 min 0,0 km/h (0 Bft)
02.05.2010 04:40 19,0 C 8,3 C 0,0 UV-I 0,0 C 49 % 89 % 0 % 1011,6 hPa 0,0 l/m 0,0 km/h (0 Bft) 0 min 0,0 km/h (0 Bft)
02.05.2010 04:42 19,0 C 8,3 C 0,0 UV-I 0,0 C 49 % 89 % 0 % 1011,6 hPa 0,0 l/m 0,0 km/h (0 Bft) 0 min 0,0 km/h (0 Bft)
02.05.2010 04:44 19,0 C 8,2 C 0,0 UV-I 0,0 C 49 % 89 % 0 % 1011,6 hPa 0,0 l/m 0,0 km/h (0 Bft) 0 min 0,0 km/h (0 Bft)
02.05.2010 04:46 19,0 C 8,2 C 0,0 UV-I 0,0 C 49 % 89 % 0 % 1011,6 hPa 0,0 l/m 0,0 km/h (0 Bft) 0 min 0,0 km/h (0 Bft)
02.05.2010 04:48 19,0 C 8,2 C 0,0 UV-I 0,0 C 49 % 89 % 0 % 1011,6 hPa 0,0 l/m 0,0 km/h (0 Bft) 0 min 0,0 km/h (0 Bft)
02.05.2010 04:50 19,0 C 8,3 C 0,0 UV-I 0,0 C 49 % 89 % 0 % 1011,6 hPa 0,0 l/m 0,0 km/h (0 Bft) 0 min 0,0 km/h (0 Bft)
02.05.2010 04:52 19,0 C 8,2 C 0,0 UV-I 0,0 C 49 % 89 % 0 % 1011,3 hPa 0,0 l/m 0,0 km/h (0 Bft) 0 min 0,0 km/h (0 Bft)
02.05.2010 04:54 19,0 C 8,2 C 0,0 UV-I 0,0 C 49 % 89 % 0 % 1011,3 hPa 0,0 l/m 0,0 km/h (0 Bft) 0 min 0,0 km/h (0 Bft)
02.05.2010 04:56 19,0 C 8,2 C 0,0 UV-I 0,0 C 49 % 89 % 0 % 1011,3 hPa 0,0 l/m 0,0 km/h (0 Bft) 0 min 0,0 km/h (0 Bft)
02.05.2010 04:58 19,0 C 8,3 C 0,0 UV-I 0,0 C 49 % 89 % 0 % 1011,3 hPa 0,0 l/m 0,0 km/h (0 Bft) 0 min 0,0 km/h (0 Bft)
02.05.2010 05:00 19,0 C 8,3 C 0,0 UV-I 0,0 C 49 % 90 % 0 % 1011,3 hPa 0,0 l/m 0,0 km/h (0 Bft) 0 min 0,0 km/h (0 Bft)
02.05.2010 05:02 19,0 C 8,3 C 0,0 UV-I 0,0 C 49 % 90 % 0 % 1011,3 hPa 0,0 l/m 0,0 km/h (0 Bft) 0 min 0,0 km/h (0 Bft)
02.05.2010 05:04 19,0 C 8,3 C 0,0 UV-I 0,0 C 49 % 90 % 0 % 1011,3 hPa 0,0 l/m 0,0 km/h (0 Bft) 0 min 0,0 km/h (0 Bft)
02.05.2010 05:06 19,0 C 8,4 C 0,0 UV-I 0,0 C 49 % 90 % 0 % 1011,3 hPa 0,0 l/m 0,0 km/h (0 Bft) 0 min 0,0 km/h (0 Bft)
02.05.2010 05:08 19,0 C 8,4 C 0,0 UV-I 0,0 C 49 % 90 % 0 % 1011,3 hPa 0,0 l/m 0,0 km/h (0 Bft) 0 min 0,0 km/h (0 Bft)
02.05.2010 05:10 19,0 C 8,4 C 0,0 UV-I 0,0 C 49 % 90 % 0 % 1011,3 hPa 0,0 l/m 0,0 km/h (0 Bft) 0 min 0,0 km/h (0 Bft)
02.05.2010 05:12 19,0 C 8,5 C 0,0 UV-I 0,0 C 49 % 90 % 0 % 1011,4 hPa 0,0 l/m 0,0 km/h (0 Bft) 0 min 0,0 km/h (0 Bft)
02.05.2010 05:14 19,0 C 8,5 C 0,0 UV-I 0,0 C 49 % 90 % 0 % 1011,4 hPa 0,0 l/m 0,0 km/h (0 Bft) 0 min 0,0 km/h (0 Bft)
02.05.2010 05:16 19,0 C 8,5 C 0,0 UV-I 0,0 C 49 % 90 % 0 % 1011,4 hPa 0,0 l/m 0,0 km/h (0 Bft) 0 min 0,0 km/h (0 Bft)
02.05.2010 05:18 19,0 C 8,5 C 0,0 UV-I 0,0 C 49 % 90 % 0 % 1011,4 hPa 0,0 l/m 0,0 km/h (0 Bft) 0 min 0,0 km/h (0 Bft)
02.05.2010 05:20 19,0 C 8,5 C 0,0 UV-I 0,0 C 49 % 90 % 0 % 1011,4 hPa 0,0 l/m 0,0 km/h (0 Bft) 0 min 0,0 km/h (0 Bft)
02.05.2010 05:22 19,0 C 8,5 C 0,0 UV-I 0,0 C 49 % 90 % 0 % 1011,4 hPa 0,0 l/m 0,0 km/h (0 Bft) 0 min 0,0 km/h (0 Bft)
02.05.2010 05:24 19,0 C 8,6 C 0,0 UV-I 0,0 C 49 % 90 % 0 % 1011,4 hPa 0,0 l/m 0,0 km/h (0 Bft) 0 min 0,0 km/h (0 Bft)
02.05.2010 05:26 19,0 C 8,6 C 0,0 UV-I 0,0 C 49 % 89 % 0 % 1011,4 hPa 0,0 l/m 0,0 km/h (0 Bft) 0 min 0,0 km/h (0 Bft)
02.05.2010 05:28 19,0 C 8,7 C 0,0 UV-I 0,0 C 49 % 89 % 0 % 1011,4 hPa 0,0 l/m 0,0 km/h (0 Bft) 0 min 0,0 km/h (0 Bft)
02.05.2010 05:32 19,0 C 8,7 C 0,0 UV-I 0,0 C 49 % 89 % 0 % 1010,6 hPa 0,0 l/m 0,0 km/h (0 Bft) 0 min 0,0 km/h (0 Bft)
02.05.2010 05:34 19,0 C 8,7 C 0,0 UV-I 0,0 C 49 % 89 % 0 % 1010,6 hPa 0,0 l/m 0,0 km/h (0 Bft) 0 min 0,0 km/h (0 Bft)
02.05.2010 05:36 19,0 C 8,6 C 0,0 UV-I 0,0 C 49 % 89 % 0 % 1010,6 hPa 0,0 l/m 0,0 km/h (0 Bft) 0 min 0,0 km/h (0 Bft)
02.05.2010 05:38 18,9 C 8,7 C 0,0 UV-I 0,0 C 50 % 89 % 0 % 1010,6 hPa 0,0 l/m 0,0 km/h (0 Bft) 0 min 0,0 km/h (0 Bft)
02.05.2010 05:40 18,9 C 8,6 C 0,0 UV-I 0,0 C 49 % 89 % 0 % 1010,6 hPa 0,0 l/m 0,0 km/h (0 Bft) 0 min 0,0 km/h (0 Bft)
02.05.2010 05:42 18,9 C 8,7 C 0,0 UV-I 0,0 C 49 % 89 % 0 % 1010,6 hPa 0,0 l/m 0,0 km/h (0 Bft) 0 min 0,0 km/h (0 Bft)
02.05.2010 05:44 18,9 C 8,7 C 0,0 UV-I 0,0 C 50 % 89 % 0 % 1010,6 hPa 0,0 l/m 0,0 km/h (0 Bft) 0 min 0,0 km/h (0 Bft)
02.05.2010 05:46 18,9 C 8,7 C 0,0 UV-I 0,0 C 50 % 89 % 0 % 1010,6 hPa 0,0 l/m 0,0 km/h (0 Bft) 0 min 0,0 km/h (0 Bft)
02.05.2010 05:48 18,9 C 8,7 C 0,0 UV-I 0,0 C 49 % 89 % 0 % 1010,6 hPa 0,0 l/m 0,0 km/h (0 Bft) 0 min 0,0 km/h (0 Bft)
02.05.2010 05:50 18,9 C 8,8 C 0,0 UV-I 0,0 C 50 % 90 % 0 % 1010,6 hPa 0,0 l/m 0,0 km/h (0 Bft) 0 min 0,0 km/h (0 Bft)
02.05.2010 05:52 18,9 C 8,8 C 0,0 UV-I 0,0 C 50 % 90 % 0 % 1010,4 hPa 0,0 l/m 0,0 km/h (0 Bft) 0 min 0,0 km/h (0 Bft)
02.05.2010 05:54 18,9 C 8,8 C 0,0 UV-I 0,0 C 50 % 90 % 0 % 1010,4 hPa 0,0 l/m 0,0 km/h (0 Bft) 0 min 0,0 km/h (0 Bft)
02.05.2010 05:56 18,9 C 8,8 C 0,0 UV-I 0,0 C 50 % 90 % 0 % 1010,4 hPa 0,0 l/m 0,0 km/h (0 Bft) 0 min 0,0 km/h (0 Bft)
02.05.2010 05:58 18,9 C 8,8 C 0,0 UV-I 0,0 C 50 % 90 % 0 % 1010,4 hPa 0,0 l/m 0,0 km/h (0 Bft) 0 min 0,0 km/h (0 Bft)
02.05.2010 06:00 18,9 C 8,8 C 0,0 UV-I 0,0 C 50 % 90 % 0 % 1010,4 hPa 0,0 l/m 0,0 km/h (0 Bft) 0 min 0,0 km/h (0 Bft)
02.05.2010 06:02 18,9 C 8,8 C 0,0 UV-I 0,0 C 50 % 90 % 0 % 1010,4 hPa 0,0 l/m 0,0 km/h (0 Bft) 0 min 0,0 km/h (0 Bft)
02.05.2010 06:04 18,9 C 8,8 C 0,0 UV-I 0,0 C 50 % 90 % 0 % 1010,4 hPa 0,0 l/m 0,0 km/h (0 Bft) 0 min 0,0 km/h (0 Bft)
02.05.2010 06:06 18,9 C 8,8 C 0,0 UV-I 0,0 C 50 % 90 % 0 % 1010,4 hPa 0,0 l/m 0,0 km/h (0 Bft) 0 min 0,0 km/h (0 Bft)
02.05.2010 06:08 18,9 C 8,8 C 0,0 UV-I 0,0 C 50 % 90 % 0 % 1010,4 hPa 0,0 l/m 0,0 km/h (0 Bft) 0 min 0,0 km/h (0 Bft)
02.05.2010 06:10 18,9 C 8,8 C 0,0 UV-I 0,0 C 50 % 90 % 0 % 1010,4 hPa 0,0 l/m 0,0 km/h (0 Bft) 0 min 0,0 km/h (0 Bft)
02.05.2010 06:12 18,9 C 8,8 C 0,0 UV-I 0,0 C 50 % 90 % 0 % 1010,1 hPa 0,0 l/m 0,0 km/h (0 Bft) 0 min 0,0 km/h (0 Bft)
02.05.2010 06:14 18,8 C 8,8 C 0,0 UV-I 0,0 C 50 % 90 % 0 % 1010,1 hPa 0,0 l/m 0,0 km/h (0 Bft) 0 min 0,0 km/h (0 Bft)
02.05.2010 06:16 18,9 C 8,8 C 0,0 UV-I 0,0 C 50 % 90 % 0 % 1010,1 hPa 0,0 l/m 0,0 km/h (0 Bft) 0 min 0,0 km/h (0 Bft)
02.05.2010 06:18 18,9 C 8,8 C 0,0 UV-I 0,0 C 50 % 90 % 0 % 1010,1 hPa 0,0 l/m 0,0 km/h (0 Bft) 0 min 0,0 km/h (0 Bft)
02.05.2010 06:20 18,9 C 8,8 C 0,0 UV-I 0,0 C 50 % 90 % 0 % 1010,1 hPa 0,0 l/m 0,0 km/h (0 Bft) 0 min 0,0 km/h (0 Bft)
02.05.2010 06:22 18,8 C 8,8 C 0,0 UV-I 0,0 C 50 % 90 % 0 % 1010,1 hPa 0,0 l/m 0,0 km/h (0 Bft) 0 min 0,0 km/h (0 Bft)
02.05.2010 06:24 18,8 C 8,8 C 0,0 UV-I 0,0 C 50 % 90 % 0 % 1010,1 hPa 0,0 l/m 0,0 km/h (0 Bft) 0 min 0,0 km/h (0 Bft)
02.05.2010 06:26 18,8 C 8,8 C 0,0 UV-I 0,0 C 50 % 90 % 0 % 1010,1 hPa 0,0 l/m 0,0 km/h (0 Bft) 0 min 0,0 km/h (0 Bft)
02.05.2010 06:28 18,8 C 8,8 C 0,0 UV-I 0,0 C 50 % 90 % 0 % 1010,1 hPa 0,0 l/m 0,0 km/h (0 Bft) 0 min 0,0 km/h (0 Bft)
02.05.2010 06:30 18,8 C 8,8 C 0,0 UV-I 0,0 C 50 % 90 % 0 % 1010,1 hPa 0,0 l/m 0,0 km/h (0 Bft) 0 min 0,0 km/h (0 Bft)
02.05.2010 06:32 18,8 C 8,9 C 0,0 UV-I 0,0 C 50 % 90 % 0 % 1010,0 hPa 0,0 l/m 0,0 km/h (0 Bft) 0 min 0,0 km/h (0 Bft)
02.05.2010 06:34 18,8 C 8,8 C 0,0 UV-I 0,0 C 50 % 90 % 0 % 1010,0 hPa 0,0 l/m 0,0 km/h (0 Bft) 0 min 0,0 km/h (0 Bft)
02.05.2010 06:36 18,8 C 8,8 C 0,0 UV-I 0,0 C 50 % 90 % 0 % 1010,0 hPa 0,0 l/m 0,0 km/h (0 Bft) 0 min 0,0 km/h (0 Bft)
02.05.2010 06:38 18,8 C 8,9 C 0,0 UV-I 0,0 C 50 % 90 % 0 % 1010,0 hPa 0,0 l/m 0,0 km/h (0 Bft) 0 min 0,0 km/h (0 Bft)
02.05.2010 06:40 18,8 C 8,8 C 0,0 UV-I 0,0 C 50 % 90 % 0 % 1010,0 hPa 0,0 l/m 0,0 km/h (0 Bft) 0 min 0,0 km/h (0 Bft)
02.05.2010 06:42 18,8 C 8,8 C 0,0 UV-I 0,0 C 50 % 90 % 0 % 1010,0 hPa 0,0 l/m 0,0 km/h (0 Bft) 0 min 0,0 km/h (0 Bft)
02.05.2010 06:44 18,8 C 8,9 C 0,0 UV-I 0,0 C 50 % 90 % 0 % 1010,0 hPa 0,0 l/m 0,0 km/h (0 Bft) 0 min 0,0 km/h (0 Bft)
02.05.2010 06:46 18,8 C 8,8 C 0,0 UV-I 0,0 C 50 % 90 % 0 % 1010,0 hPa 0,0 l/m 0,4 km/h (0 Bft) 0 min 0,0 km/h (0 Bft)
02.05.2010 06:48 18,8 C 8,9 C 0,0 UV-I 0,0 C 50 % 90 % 0 % 1010,0 hPa 0,0 l/m 0,4 km/h (0 Bft) 0 min 0,0 km/h (0 Bft)
02.05.2010 06:50 18,8 C 8,9 C 0,0 UV-I 0,0 C 50 % 90 % 0 % 1010,0 hPa 0,0 l/m 0,4 km/h (0 Bft) 0 min 0,0 km/h (0 Bft)
02.05.2010 06:52 18,8 C 8,9 C 0,0 UV-I 0,0 C 50 % 90 % 0 % 1010,1 hPa 0,0 l/m 0,0 km/h (0 Bft) 0 min 0,0 km/h (0 Bft)
02.05.2010 06:54 18,8 C 8,9 C 0,0 UV-I 0,0 C 50 % 90 % 0 % 1010,1 hPa 0,0 l/m 0,0 km/h (0 Bft) 0 min 0,0 km/h (0 Bft)
02.05.2010 06:56 18,8 C 8,9 C 0,0 UV-I 0,0 C 50 % 90 % 0 % 1010,1 hPa 0,0 l/m 0,0 km/h (0 Bft) 0 min 0,0 km/h (0 Bft)
02.05.2010 06:58 18,8 C 9,0 C 0,0 UV-I 0,0 C 50 % 90 % 0 % 1010,1 hPa 0,0 l/m 0,0 km/h (0 Bft) 0 min 0,0 km/h (0 Bft)
02.05.2010 07:00 18,8 C 9,1 C 0,0 UV-I 0,0 C 50 % 90 % 0 % 1010,1 hPa 0,0 l/m 0,0 km/h (0 Bft) 0 min 0,0 km/h (0 Bft)
02.05.2010 07:02 18,8 C 9,1 C 0,0 UV-I 0,0 C 50 % 90 % 0 % 1010,1 hPa 0,0 l/m 0,0 km/h (0 Bft) 0 min 0,0 km/h (0 Bft)
02.05.2010 07:04 18,8 C 9,0 C 0,0 UV-I 0,0 C 50 % 90 % 0 % 1010,1 hPa 0,0 l/m 0,0 km/h (0 Bft) 0 min 0,0 km/h (0 Bft)
02.05.2010 07:06 18,8 C 9,1 C 0,0 UV-I 0,0 C 50 % 90 % 0 % 1010,1 hPa 0,0 l/m 0,0 km/h (0 Bft) 0 min 0,0 km/h (0 Bft)
02.05.2010 07:08 18,8 C 9,1 C 0,0 UV-I 0,0 C 50 % 90 % 0 % 1010,1 hPa 0,0 l/m 0,0 km/h (0 Bft) 0 min 0,0 km/h (0 Bft)
02.05.2010 07:10 18,8 C 9,1 C 0,0 UV-I 0,0 C 50 % 91 % 0 % 1010,1 hPa 0,0 l/m 0,0 km/h (0 Bft) 0 min 0,0 km/h (0 Bft)
02.05.2010 07:12 18,8 C 9,1 C 0,0 UV-I 0,0 C 50 % 91 % 0 % 1009,9 hPa 0,0 l/m 0,4 km/h (0 Bft) 0 min 4,0 km/h (1 Bft)
02.05.2010 07:14 18,8 C 9,2 C 0,0 UV-I 0,0 C 50 % 91 % 0 % 1009,9 hPa 0,0 l/m 0,8 km/h (0 Bft) 0 min 4,4 km/h (1 Bft)
02.05.2010 07:16 18,8 C 9,2 C 0,0 UV-I 0,0 C 50 % 91 % 0 % 1009,9 hPa 0,0 l/m 0,8 km/h (0 Bft) 0 min 0,0 km/h (0 Bft)
02.05.2010 07:18 18,8 C 9,2 C 0,0 UV-I 0,0 C 50 % 91 % 0 % 1009,9 hPa 0,0 l/m 1,6 km/h (1 Bft) 0 min 5,2 km/h (1 Bft)
02.05.2010 07:20 18,8 C 9,3 C 0,0 UV-I 0,0 C 50 % 91 % 0 % 1009,9 hPa 0,0 l/m 1,6 km/h (1 Bft) 0 min 5,6 km/h (1 Bft)
02.05.2010 07:22 18,8 C 9,3 C 0,0 UV-I 0,0 C 50 % 91 % 0 % 1009,9 hPa 0,0 l/m 2,8 km/h (1 Bft) 0 min 5,6 km/h (1 Bft)
02.05.2010 07:24 18,8 C 9,3 C 0,0 UV-I 0,0 C 50 % 91 % 0 % 1009,9 hPa 0,0 l/m 2,8 km/h (1 Bft) 0 min 4,0 km/h (1 Bft)
02.05.2010 07:30 18,7 C 9,3 C 0,0 UV-I 0,0 C 51 % 91 % 0 % 1009,9 hPa 0,0 l/m 3,2 km/h (1 Bft) 0 min 6,8 km/h (2 Bft)
02.05.2010 07:32 18,8 C 9,3 C 0,0 UV-I 0,0 C 50 % 91 % 0 % 1009,9 hPa 0,1 l/m 2,8 km/h (1 Bft) 0 min 0,0 km/h (0 Bft)
02.05.2010 07:34 18,8 C 9,4 C 0,0 UV-I 0,0 C 51 % 91 % 0 % 1009,9 hPa 0,0 l/m 1,6 km/h (1 Bft) 0 min 0,0 km/h (0 Bft)
02.05.2010 07:38 18,7 C 9,4 C 0,0 UV-I 0,0 C 51 % 91 % 0 % 1009,9 hPa 0,0 l/m 0,8 km/h (0 Bft) 0 min 0,0 km/h (0 Bft)
02.05.2010 07:42 18,7 C 9,5 C 0,0 UV-I 0,0 C 51 % 91 % 0 % 1009,9 hPa 0,0 l/m 0,0 km/h (0 Bft) 0 min 0,0 km/h (0 Bft)
02.05.2010 07:46 18,8 C 9,5 C 0,1 UV-I 0,0 C 51 % 91 % 0 % 1009,9 hPa 0,0 l/m 0,0 km/h (0 Bft) 0 min 0,0 km/h (0 Bft)
02.05.2010 07:52 18,8 C 9,7 C 0,1 UV-I 0,0 C 51 % 91 % 0 % 1009,8 hPa 0,1 l/m 0,0 km/h (0 Bft) 0 min 0,0 km/h (0 Bft)
02.05.2010 07:54 18,8 C 9,7 C 0,1 UV-I 0,0 C 51 % 91 % 0 % 1009,8 hPa 0,0 l/m 0,0 km/h (0 Bft) 0 min 0,0 km/h (0 Bft)
02.05.2010 07:56 18,8 C 9,7 C 0,2 UV-I 0,0 C 51 % 91 % 0 % 1009,8 hPa 0,0 l/m 0,0 km/h (0 Bft) 0 min 0,0 km/h (0 Bft)
02.05.2010 07:58 18,8 C 9,7 C 0,2 UV-I 0,0 C 51 % 91 % 0 % 1009,8 hPa 0,0 l/m 0,0 km/h (0 Bft) 0 min 0,0 km/h (0 Bft)
02.05.2010 08:00 18,8 C 9,9 C 0,3 UV-I 0,0 C 51 % 91 % 0 % 1009,8 hPa 0,0 l/m 0,0 km/h (0 Bft) 0 min 0,0 km/h (0 Bft)
02.05.2010 08:02 18,8 C 9,9 C 0,3 UV-I 0,0 C 51 % 91 % 0 % 1009,8 hPa 0,0 l/m 0,0 km/h (0 Bft) 0 min 0,0 km/h (0 Bft)
02.05.2010 08:04 18,8 C 9,8 C 0,3 UV-I 0,0 C 51 % 90 % 0 % 1009,8 hPa 0,0 l/m 0,0 km/h (0 Bft) 0 min 0,0 km/h (0 Bft)
02.05.2010 08:06 18,8 C 9,9 C 0,3 UV-I 0,0 C 51 % 90 % 0 % 1009,8 hPa 0,0 l/m 0,0 km/h (0 Bft) 0 min 0,0 km/h (0 Bft)
02.05.2010 08:08 18,8 C 9,9 C 0,3 UV-I 0,0 C 51 % 90 % 0 % 1009,8 hPa 0,0 l/m 0,0 km/h (0 Bft) 0 min 0,0 km/h (0 Bft)
02.05.2010 08:10 18,8 C 9,9 C 0,3 UV-I 0,0 C 51 % 90 % 0 % 1009,8 hPa 0,0 l/m 0,0 km/h (0 Bft) 0 min 0,0 km/h (0 Bft)
02.05.2010 08:12 18,8 C 9,9 C 0,3 UV-I 0,0 C 51 % 90 % 0 % 1010,1 hPa 0,0 l/m 0,0 km/h (0 Bft) 0 min 0,0 km/h (0 Bft)
02.05.2010 08:14 18,8 C 9,9 C 0,3 UV-I 0,0 C 51 % 90 % 0 % 1010,1 hPa 0,0 l/m 0,4 km/h (0 Bft) 0 min 0,0 km/h (0 Bft)
02.05.2010 08:16 18,8 C 10,0 C 0,2 UV-I 0,0 C 51 % 90 % 0 % 1010,1 hPa 0,0 l/m 0,4 km/h (0 Bft) 0 min 0,0 km/h (0 Bft)
02.05.2010 08:20 18,8 C 10,0 C 0,2 UV-I 0,0 C 51 % 90 % 0 % 1010,1 hPa 0,0 l/m 0,4 km/h (0 Bft) 0 min 0,0 km/h (0 Bft)
02.05.2010 08:22 18,8 C 10,0 C 0,2 UV-I 0,0 C 51 % 90 % 0 % 1010,1 hPa 0,0 l/m 0,4 km/h (0 Bft) 0 min 0,0 km/h (0 Bft)
02.05.2010 08:24 18,8 C 10,0 C 0,2 UV-I 0,0 C 51 % 90 % 0 % 1010,1 hPa 0,0 l/m 0,4 km/h (0 Bft) 0 min 0,0 km/h (0 Bft)
02.05.2010 08:30 18,8 C 10,1 C 0,6 UV-I 0,0 C 51 % 89 % 0 % 1010,1 hPa 0,0 l/m 0,4 km/h (0 Bft) 0 min 0,0 km/h (0 Bft)
02.05.2010 08:32 18,8 C 10,1 C 0,6 UV-I 0,0 C 51 % 89 % 0 % 1010,1 hPa 0,0 l/m 0,0 km/h (0 Bft) 0 min 0,0 km/h (0 Bft)
02.05.2010 08:36 18,8 C 10,1 C 0,6 UV-I 0,1 C 51 % 89 % 3 % 1010,1 hPa 0,0 l/m 0,0 km/h (0 Bft) 0 min 0,0 km/h (0 Bft)
02.05.2010 08:42 18,8 C 10,3 C 0,2 UV-I 0,0 C 51 % 89 % 0 % 1010,1 hPa 0,0 l/m 0,0 km/h (0 Bft) 0 min 0,0 km/h (0 Bft)
02.05.2010 08:44 18,8 C 10,3 C 0,2 UV-I 0,0 C 51 % 89 % 0 % 1010,1 hPa 0,0 l/m 0,0 km/h (0 Bft) 0 min 0,0 km/h (0 Bft)
02.05.2010 08:48 18,8 C 10,3 C 0,3 UV-I 0,0 C 51 % 89 % 0 % 1010,1 hPa 0,0 l/m 0,0 km/h (0 Bft) 0 min 0,0 km/h (0 Bft)
02.05.2010 08:52 18,8 C 10,3 C 0,2 UV-I 0,0 C 51 % 89 % 0 % 1010,0 hPa 0,0 l/m 0,0 km/h (0 Bft) 0 min 0,0 km/h (0 Bft)
02.05.2010 08:54 18,8 C 10,3 C 0,2 UV-I 0,0 C 51 % 89 % 0 % 1010,0 hPa 0,0 l/m 0,0 km/h (0 Bft) 0 min 0,0 km/h (0 Bft)
02.05.2010 08:56 18,8 C 10,4 C 0,4 UV-I 0,0 C 51 % 89 % 0 % 1010,0 hPa 0,1 l/m 0,4 km/h (0 Bft) 0 min 0,0 km/h (0 Bft)
02.05.2010 09:00 18,8 C 10,4 C 0,8 UV-I 0,0 C 51 % 89 % 0 % 1010,0 hPa 0,0 l/m 0,4 km/h (0 Bft) 0 min 0,0 km/h (0 Bft)
02.05.2010 09:02 18,8 C 10,4 C 0,8 UV-I 0,0 C 51 % 89 % 0 % 1010,0 hPa 0,0 l/m 0,4 km/h (0 Bft) 0 min 0,0 km/h (0 Bft)
02.05.2010 09:04 18,8 C 10,4 C 0,8 UV-I 0,0 C 51 % 89 % 0 % 1010,0 hPa 0,0 l/m 0,4 km/h (0 Bft) 0 min 0,0 km/h (0 Bft)
02.05.2010 09:06 18,8 C 10,4 C 1,1 UV-I 0,0 C 51 % 89 % 0 % 1010,0 hPa 0,1 l/m 0,0 km/h (0 Bft) 0 min 0,0 km/h (0 Bft)
02.05.2010 09:08 18,8 C 10,5 C 1,1 UV-I 0,0 C 51 % 90 % 0 % 1010,0 hPa 0,0 l/m 0,0 km/h (0 Bft) 0 min 0,0 km/h (0 Bft)
02.05.2010 09:13 18,9 C 10,5 C 0,8 UV-I 0,0 C 51 % 90 % 0 % 1010,8 hPa 0,0 l/m 0,4 km/h (0 Bft) 0 min 5,6 km/h (1 Bft)
02.05.2010 09:17 18,8 C 10,7 C 0,5 UV-I 0,0 C 51 % 89 % 0 % 1010,8 hPa 0,0 l/m 0,4 km/h (0 Bft) 0 min 0,0 km/h (0 Bft)
02.05.2010 09:20 18,8 C 10,6 C 0,2 UV-I 0,0 C 51 % 89 % 0 % 1010,8 hPa 0,0 l/m 0,4 km/h (0 Bft) 0 min 0,0 km/h (0 Bft)
02.05.2010 09:22 18,9 C 10,5 C 0,2 UV-I 0,0 C 51 % 89 % 0 % 1010,8 hPa 0,0 l/m 0,4 km/h (0 Bft) 0 min 0,0 km/h (0 Bft)
02.05.2010 09:24 18,9 C 10,7 C 0,2 UV-I 0,0 C 51 % 89 % 0 % 1010,8 hPa 0,0 l/m 0,4 km/h (0 Bft) 0 min 0,0 km/h (0 Bft)
02.05.2010 09:26 18,9 C 10,7 C 0,6 UV-I 0,0 C 51 % 90 % 0 % 1010,8 hPa 0,0 l/m 0,0 km/h (0 Bft) 0 min 0,0 km/h (0 Bft)
02.05.2010 09:28 18,9 C 10,7 C 0,6 UV-I 0,0 C 51 % 90 % 0 % 1010,8 hPa 0,0 l/m 0,0 km/h (0 Bft) 0 min 0,0 km/h (0 Bft)
02.05.2010 09:30 18,9 C 10,6 C 0,6 UV-I 0,0 C 51 % 90 % 0 % 1010,8 hPa 0,1 l/m 0,0 km/h (0 Bft) 0 min 0,0 km/h (0 Bft)
02.05.2010 09:32 18,9 C 10,6 C 0,6 UV-I 0,0 C 51 % 90 % 0 % 1010,2 hPa 0,0 l/m 0,0 km/h (0 Bft) 0 min 0,0 km/h (0 Bft)
02.05.2010 09:34 18,9 C 10,7 C 0,6 UV-I 0,0 C 51 % 90 % 0 % 1010,2 hPa 0,0 l/m 0,0 km/h (0 Bft) 0 min 0,0 km/h (0 Bft)
02.05.2010 09:36 18,9 C 10,7 C 0,6 UV-I 0,0 C 51 % 90 % 0 % 1010,2 hPa 0,0 l/m 0,0 km/h (0 Bft) 0 min 0,0 km/h (0 Bft)
02.05.2010 09:38 18,9 C 10,7 C 0,6 UV-I 0,0 C 51 % 90 % 0 % 1010,2 hPa 0,0 l/m 0,4 km/h (0 Bft) 0 min 6,4 km/h (2 Bft)
02.05.2010 09:40 18,9 C 10,7 C 0,4 UV-I 0,0 C 51 % 90 % 0 % 1010,2 hPa 0,1 l/m 0,8 km/h (0 Bft) 0 min 0,0 km/h (0 Bft)
02.05.2010 09:42 18,9 C 10,7 C 0,4 UV-I 0,0 C 51 % 90 % 0 % 1010,2 hPa 0,0 l/m 0,8 km/h (0 Bft) 0 min 0,0 km/h (0 Bft)
02.05.2010 09:44 18,9 C 10,8 C 0,4 UV-I 0,0 C 51 % 90 % 0 % 1010,2 hPa 0,0 l/m 0,8 km/h (0 Bft) 0 min 0,0 km/h (0 Bft)
02.05.2010 09:46 18,9 C 10,8 C 0,6 UV-I 0,0 C 51 % 90 % 0 % 1010,2 hPa 0,0 l/m 0,8 km/h (0 Bft) 0 min 4,0 km/h (1 Bft)
02.05.2010 09:48 18,9 C 10,8 C 0,6 UV-I 0,0 C 51 % 90 % 0 % 1010,2 hPa 0,0 l/m 0,4 km/h (0 Bft) 0 min 0,0 km/h (0 Bft)
02.05.2010 09:50 18,9 C 10,9 C 0,8 UV-I 0,0 C 51 % 90 % 0 % 1010,2 hPa 0,0 l/m 0,4 km/h (0 Bft) 0 min 0,0 km/h (0 Bft)
02.05.2010 09:52 18,9 C 10,8 C 0,8 UV-I 0,0 C 51 % 90 % 0 % 1010,1 hPa 0,0 l/m 0,8 km/h (0 Bft) 0 min 10,0 km/h (2 Bft)
02.05.2010 09:54 18,9 C 10,8 C 0,8 UV-I 0,0 C 51 % 90 % 0 % 1010,1 hPa 0,0 l/m 1,6 km/h (1 Bft) 0 min 5,6 km/h (1 Bft)
02.05.2010 09:56 18,9 C 10,9 C 0,6 UV-I 0,0 C 51 % 90 % 0 % 1010,1 hPa 0,0 l/m 1,6 km/h (1 Bft) 0 min 0,0 km/h (0 Bft)
02.05.2010 09:58 18,9 C 10,9 C 0,6 UV-I 0,0 C 51 % 90 % 0 % 1010,1 hPa 0,0 l/m 1,6 km/h (1 Bft) 0 min 4,4 km/h (1 Bft)
02.05.2010 10:00 18,9 C 10,9 C 0,7 UV-I 0,0 C 51 % 90 % 0 % 1010,1 hPa 0,1 l/m 1,6 km/h (1 Bft) 0 min 10,0 km/h (2 Bft)
02.05.2010 10:02 18,9 C 11,0 C 0,7 UV-I 0,0 C 52 % 90 % 0 % 1010,1 hPa 0,0 l/m 1,6 km/h (1 Bft) 0 min 0,0 km/h (0 Bft)
02.05.2010 10:04 19,0 C 11,1 C 0,7 UV-I 0,0 C 52 % 91 % 0 % 1010,1 hPa 0,0 l/m 0,4 km/h (0 Bft) 0 min 0,0 km/h (0 Bft)
02.05.2010 10:06 19,0 C 11,1 C 1,6 UV-I 0,0 C 52 % 91 % 0 % 1010,1 hPa 0,1 l/m 0,4 km/h (0 Bft) 0 min 4,4 km/h (1 Bft)
02.05.2010 10:08 19,0 C 11,3 C 1,6 UV-I 0,0 C 52 % 91 % 0 % 1010,1 hPa 0,0 l/m 0,4 km/h (0 Bft) 0 min 0,0 km/h (0 Bft)
02.05.2010 10:10 18,9 C 11,2 C 2,7 UV-I 0,2 C 52 % 91 % 6 % 1010,1 hPa 0,0 l/m 0,8 km/h (0 Bft) 0 min 10,0 km/h (2 Bft)
02.05.2010 10:12 19,0 C 11,3 C 2,7 UV-I 0,2 C 52 % 91 % 6 % 1010,1 hPa 0,0 l/m 0,8 km/h (0 Bft) 0 min 4,8 km/h (1 Bft)
02.05.2010 10:14 19,0 C 11,5 C 2,7 UV-I 0,2 C 52 % 91 % 6 % 1010,1 hPa 0,0 l/m 1,2 km/h (1 Bft) 0 min 4,4 km/h (1 Bft)
02.05.2010 10:16 19,0 C 11,4 C 3,1 UV-I 0,5 C 52 % 91 % 14 % 1010,1 hPa 0,0 l/m 1,2 km/h (1 Bft) 0 min 0,0 km/h (0 Bft)
02.05.2010 10:18 19,0 C 11,5 C 3,1 UV-I 0,6 C 52 % 91 % 17 % 1010,1 hPa 0,0 l/m 1,2 km/h (1 Bft) 0 min 0,0 km/h (0 Bft)
02.05.2010 10:20 19,0 C 11,6 C 2,4 UV-I 0,6 C 52 % 91 % 17 % 1010,1 hPa 0,0 l/m 0,8 km/h (0 Bft) 0 min 0,0 km/h (0 Bft)
02.05.2010 10:22 19,0 C 11,6 C 2,4 UV-I 0,7 C 52 % 91 % 20 % 1010,1 hPa 0,0 l/m 0,8 km/h (0 Bft) 0 min 0,0 km/h (0 Bft)
02.05.2010 10:24 19,0 C 11,7 C 2,4 UV-I 0,7 C 52 % 90 % 20 % 1010,1 hPa 0,0 l/m 0,8 km/h (0 Bft) 0 min 0,0 km/h (0 Bft)
02.05.2010 10:26 19,0 C 11,6 C 2,4 UV-I 0,8 C 52 % 90 % 23 % 1010,1 hPa 0,0 l/m 0,4 km/h (0 Bft) 0 min 0,0 km/h (0 Bft)
02.05.2010 10:28 19,0 C 11,6 C 2,4 UV-I 0,8 C 52 % 91 % 23 % 1010,1 hPa 0,0 l/m 0,4 km/h (0 Bft) 0 min 0,0 km/h (0 Bft)
02.05.2010 10:30 19,0 C 11,7 C 1,3 UV-I 0,8 C 52 % 91 % 23 % 1010,1 hPa 0,0 l/m 0,8 km/h (0 Bft) 0 min 5,6 km/h (1 Bft)
02.05.2010 10:32 19,0 C 11,7 C 1,3 UV-I 0,7 C 52 % 90 % 20 % 1010,2 hPa 0,0 l/m 0,4 km/h (0 Bft) 0 min 0,0 km/h (0 Bft)
02.05.2010 10:34 19,0 C 11,7 C 1,3 UV-I 0,6 C 51 % 90 % 17 % 1010,2 hPa 0,0 l/m 0,4 km/h (0 Bft) 0 min 4,4 km/h (1 Bft)
02.05.2010 10:36 19,1 C 11,6 C 0,6 UV-I 0,7 C 51 % 90 % 20 % 1010,2 hPa 0,0 l/m 0,4 km/h (0 Bft) 0 min 0,0 km/h (0 Bft)
02.05.2010 10:38 19,1 C 11,6 C 0,6 UV-I 0,6 C 51 % 90 % 17 % 1010,2 hPa 0,0 l/m 0,4 km/h (0 Bft) 0 min 0,0 km/h (0 Bft)
02.05.2010 10:40 19,1 C 11,7 C 0,8 UV-I 0,4 C 51 % 90 % 11 % 1010,2 hPa 0,0 l/m 1,2 km/h (1 Bft) 0 min 7,6 km/h (2 Bft)
02.05.2010 10:42 19,1 C 11,7 C 0,8 UV-I 0,3 C 51 % 90 % 9 % 1010,2 hPa 0,0 l/m 1,2 km/h (1 Bft) 0 min 0,0 km/h (0 Bft)
02.05.2010 10:44 19,1 C 11,7 C 0,8 UV-I 0,2 C 51 % 90 % 6 % 1010,2 hPa 0,1 l/m 1,2 km/h (1 Bft) 0 min 0,0 km/h (0 Bft)
02.05.2010 10:46 19,1 C 11,7 C 1,2 UV-I 0,2 C 52 % 90 % 6 % 1010,2 hPa 0,0 l/m 1,6 km/h (1 Bft) 0 min 12,4 km/h (3 Bft)
02.05.2010 10:48 19,1 C 11,7 C 1,2 UV-I 0,2 C 52 % 90 % 6 % 1010,2 hPa 0,0 l/m 2,8 km/h (1 Bft) 0 min 12,0 km/h (2 Bft)
02.05.2010 10:50 19,1 C 11,9 C 2,0 UV-I 0,0 C 52 % 90 % 0 % 1010,2 hPa 0,0 l/m 3,6 km/h (1 Bft) 0 min 20,1 km/h (4 Bft)
02.05.2010 10:52 19,1 C 11,9 C 2,0 UV-I 0,0 C 52 % 90 % 0 % 1010,4 hPa 0,0 l/m 3,6 km/h (1 Bft) 0 min 6,4 km/h (2 Bft)
02.05.2010 10:54 19,1 C 11,8 C 2,0 UV-I 0,3 C 52 % 90 % 9 % 1010,4 hPa 0,0 l/m 3,6 km/h (1 Bft) 0 min 6,0 km/h (2 Bft)
02.05.2010 10:56 19,2 C 11,9 C 2,7 UV-I 0,3 C 52 % 90 % 9 % 1010,4 hPa 0,0 l/m 4,4 km/h (1 Bft) 0 min 5,2 km/h (1 Bft)
02.05.2010 10:58 19,2 C 11,9 C 2,7 UV-I 0,4 C 52 % 90 % 11 % 1010,4 hPa 0,0 l/m 4,0 km/h (1 Bft) 0 min 0,0 km/h (0 Bft)
02.05.2010 11:00 19,2 C 12,1 C 2,2 UV-I 0,2 C 52 % 90 % 6 % 1010,4 hPa 0,0 l/m 4,0 km/h (1 Bft) 0 min 11,2 km/h (2 Bft)
02.05.2010 11:02 19,2 C 12,1 C 2,2 UV-I 0,2 C 52 % 90 % 6 % 1010,4 hPa 0,0 l/m 4,0 km/h (1 Bft) 0 min 14,1 km/h (3 Bft)
02.05.2010 11:04 19,2 C 12,1 C 2,2 UV-I 0,3 C 52 % 90 % 9 % 1010,4 hPa 0,0 l/m 4,4 km/h (1 Bft) 0 min 0,0 km/h (0 Bft)
02.05.2010 11:06 19,2 C 12,1 C 2,6 UV-I 0,5 C 52 % 90 % 14 % 1010,4 hPa 0,0 l/m 4,4 km/h (1 Bft) 0 min 4,4 km/h (1 Bft)
02.05.2010 11:08 19,2 C 12,1 C 2,6 UV-I 0,7 C 52 % 90 % 20 % 1010,4 hPa 0,0 l/m 4,4 km/h (1 Bft) 0 min 4,8 km/h (1 Bft)
02.05.2010 11:10 19,2 C 12,1 C 2,7 UV-I 0,8 C 52 % 90 % 23 % 1010,4 hPa 0,0 l/m 4,0 km/h (1 Bft) 0 min 7,6 km/h (2 Bft)
02.05.2010 11:12 19,2 C 12,3 C 2,7 UV-I 0,8 C 52 % 90 % 23 % 1010,2 hPa 0,0 l/m 3,2 km/h (1 Bft) 0 min 4,8 km/h (1 Bft)
02.05.2010 11:14 19,2 C 12,3 C 2,7 UV-I 0,9 C 52 % 90 % 26 % 1010,2 hPa 0,0 l/m 3,2 km/h (1 Bft) 0 min 7,6 km/h (2 Bft)
02.05.2010 11:16 19,2 C 12,3 C 3,1 UV-I 1,0 C 52 % 90 % 29 % 1010,2 hPa 0,0 l/m 3,2 km/h (1 Bft) 0 min 5,2 km/h (1 Bft)
02.05.2010 11:18 19,2 C 12,5 C 3,1 UV-I 1,0 C 52 % 90 % 29 % 1010,2 hPa 0,0 l/m 2,4 km/h (1 Bft) 0 min 0,0 km/h (0 Bft)
02.05.2010 11:20 19,2 C 12,4 C 3,4 UV-I 1,3 C 52 % 90 % 37 % 1010,2 hPa 0,1 l/m 2,0 km/h (1 Bft) 0 min 0,0 km/h (0 Bft)
02.05.2010 11:22 19,2 C 12,7 C 3,4 UV-I 1,2 C 52 % 90 % 34 % 1010,2 hPa 0,0 l/m 2,0 km/h (1 Bft) 0 min 4,4 km/h (1 Bft)
02.05.2010 11:24 19,2 C 12,6 C 3,4 UV-I 1,4 C 52 % 90 % 40 % 1010,2 hPa 0,0 l/m 1,2 km/h (1 Bft) 0 min 0,0 km/h (0 Bft)
02.05.2010 11:26 19,2 C 12,7 C 2,8 UV-I 1,3 C 52 % 90 % 37 % 1010,2 hPa 0,0 l/m 0,8 km/h (0 Bft) 0 min 0,0 km/h (0 Bft)
02.05.2010 11:28 19,2 C 12,8 C 2,8 UV-I 1,3 C 52 % 90 % 37 % 1010,2 hPa 0,0 l/m 0,8 km/h (0 Bft) 0 min 0,0 km/h (0 Bft)
02.05.2010 11:30 19,2 C 12,8 C 2,0 UV-I 1,3 C 52 % 90 % 37 % 1010,2 hPa 0,0 l/m 0,8 km/h (0 Bft) 0 min 6,0 km/h (2 Bft)
02.05.2010 11:32 19,2 C 12,8 C 2,0 UV-I 1,3 C 52 % 89 % 37 % 1010,3 hPa 0,0 l/m 2,4 km/h (1 Bft) 0 min 8,4 km/h (2 Bft)
02.05.2010 11:34 19,3 C 12,8 C 2,0 UV-I 1,2 C 52 % 89 % 34 % 1010,3 hPa 0,0 l/m 2,8 km/h (1 Bft) 0 min 8,0 km/h (2 Bft)
02.05.2010 11:36 19,3 C 12,9 C 2,6 UV-I 1,0 C 52 % 88 % 29 % 1010,3 hPa 0,0 l/m 4,0 km/h (1 Bft) 0 min 7,6 km/h (2 Bft)
02.05.2010 11:38 19,3 C 12,9 C 2,6 UV-I 0,9 C 52 % 88 % 26 % 1010,3 hPa 0,0 l/m 4,0 km/h (1 Bft) 0 min 5,2 km/h (1 Bft)
02.05.2010 11:40 19,3 C 13,0 C 2,6 UV-I 0,8 C 52 % 88 % 23 % 1010,3 hPa 0,0 l/m 4,4 km/h (1 Bft) 0 min 0,0 km/h (0 Bft)
02.05.2010 11:42 19,2 C 13,1 C 2,6 UV-I 0,7 C 52 % 88 % 20 % 1010,3 hPa 0,0 l/m 4,4 km/h (1 Bft) 0 min 9,6 km/h (2 Bft)
02.05.2010 11:44 19,2 C 13,1 C 2,6 UV-I 0,6 C 52 % 88 % 17 % 1010,3 hPa 0,0 l/m 3,6 km/h (1 Bft) 0 min 0,0 km/h (0 Bft)
02.05.2010 11:46 19,2 C 13,0 C 3,0 UV-I 0,8 C 52 % 88 % 23 % 1010,3 hPa 0,0 l/m 2,8 km/h (1 Bft) 0 min 6,0 km/h (2 Bft)
02.05.2010 11:48 19,2 C 13,0 C 3,0 UV-I 0,9 C 52 % 88 % 26 % 1010,3 hPa 0,0 l/m 3,6 km/h (1 Bft) 0 min 6,4 km/h (2 Bft)
02.05.2010 11:50 19,2 C 13,1 C 3,4 UV-I 0,8 C 52 % 87 % 23 % 1010,3 hPa 0,0 l/m 3,2 km/h (1 Bft) 0 min 0,0 km/h (0 Bft)
02.05.2010 11:52 19,2 C 13,1 C 3,4 UV-I 1,0 C 52 % 87 % 29 % 1010,2 hPa 0,0 l/m 3,6 km/h (1 Bft) 0 min 0,0 km/h (0 Bft)
02.05.2010 11:56 19,2 C 13,2 C 3,4 UV-I 1,1 C 52 % 87 % 31 % 1010,2 hPa 0,0 l/m 3,2 km/h (1 Bft) 0 min 10,0 km/h (2 Bft)
02.05.2010 11:58 19,4 C 13,2 C 3,4 UV-I 1,2 C 52 % 87 % 34 % 1010,2 hPa 0,0 l/m 4,0 km/h (1 Bft) 0 min 8,0 km/h (2 Bft)
02.05.2010 12:00 19,4 C 13,2 C 2,9 UV-I 1,1 C 52 % 86 % 31 % 1010,2 hPa 0,0 l/m 4,0 km/h (1 Bft) 0 min 4,8 km/h (1 Bft)
02.05.2010 12:02 19,4 C 13,2 C 2,9 UV-I 1,1 C 52 % 85 % 31 % 1010,2 hPa 0,0 l/m 4,8 km/h (1 Bft) 0 min 8,4 km/h (2 Bft)
02.05.2010 12:04 19,4 C 13,2 C 2,9 UV-I 1,1 C 52 % 85 % 31 % 1010,2 hPa 0,0 l/m 4,8 km/h (1 Bft) 0 min 8,4 km/h (2 Bft)
02.05.2010 12:06 19,4 C 13,2 C 1,4 UV-I 0,8 C 52 % 85 % 23 % 1010,2 hPa 0,0 l/m 5,2 km/h (1 Bft) 0 min 9,2 km/h (2 Bft)
02.05.2010 12:08 19,4 C 13,2 C 1,4 UV-I 0,6 C 52 % 85 % 17 % 1010,2 hPa 0,0 l/m 4,8 km/h (1 Bft) 0 min 0,0 km/h (0 Bft)
02.05.2010 12:10 19,4 C 13,1 C 1,0 UV-I 0,6 C 52 % 85 % 17 % 1010,2 hPa 0,0 l/m 4,4 km/h (1 Bft) 0 min 6,0 km/h (2 Bft)
02.05.2010 12:12 19,4 C 13,2 C 1,0 UV-I 0,4 C 52 % 85 % 11 % 1009,8 hPa 0,0 l/m 4,0 km/h (1 Bft) 0 min 6,0 km/h (2 Bft)
02.05.2010 12:14 19,4 C 13,1 C 1,0 UV-I 0,3 C 52 % 85 % 9 % 1009,8 hPa 0,0 l/m 2,8 km/h (1 Bft) 0 min 0,0 km/h (0 Bft)
02.05.2010 12:16 19,4 C 13,1 C 1,1 UV-I 0,1 C 52 % 85 % 3 % 1009,8 hPa 0,0 l/m 3,2 km/h (1 Bft) 0 min 6,0 km/h (2 Bft)
02.05.2010 12:18 19,4 C 13,1 C 1,1 UV-I 0,0 C 52 % 85 % 0 % 1009,8 hPa 0,0 l/m 2,8 km/h (1 Bft) 0 min 10,8 km/h (2 Bft)
02.05.2010 12:20 19,4 C 13,1 C 1,2 UV-I 0,0 C 52 % 85 % 0 % 1009,8 hPa 0,0 l/m 2,0 km/h (1 Bft) 0 min 0,0 km/h (0 Bft)
02.05.2010 12:22 19,4 C 13,1 C 1,2 UV-I 0,0 C 52 % 85 % 0 % 1009,8 hPa 0,0 l/m 2,4 km/h (1 Bft) 0 min 0,0 km/h (0 Bft)
02.05.2010 12:24 19,4 C 13,1 C 1,2 UV-I 0,0 C 52 % 85 % 0 % 1009,8 hPa 0,0 l/m 2,0 km/h (1 Bft) 0 min 0,0 km/h (0 Bft)
02.05.2010 12:26 19,4 C 13,0 C 0,6 UV-I 0,0 C 52 % 85 % 0 % 1009,8 hPa 0,0 l/m 1,6 km/h (1 Bft) 0 min 0,0 km/h (0 Bft)
02.05.2010 12:28 19,4 C 13,0 C 0,6 UV-I 0,0 C 52 % 85 % 0 % 1009,8 hPa 0,0 l/m 1,2 km/h (1 Bft) 0 min 0,0 km/h (0 Bft)
02.05.2010 12:30 19,4 C 13,1 C 0,3 UV-I 0,0 C 52 % 86 % 0 % 1009,8 hPa 0,1 l/m 0,8 km/h (0 Bft) 0 min 5,6 km/h (1 Bft)
02.05.2010 12:32 19,4 C 13,1 C 0,3 UV-I 0,0 C 52 % 86 % 0 % 1009,4 hPa 0,0 l/m 0,4 km/h (0 Bft) 0 min 0,0 km/h (0 Bft)
02.05.2010 12:34 19,2 C 13,1 C 0,3 UV-I 0,0 C 52 % 86 % 0 % 1009,4 hPa 0,0 l/m 0,4 km/h (0 Bft) 0 min 4,4 km/h (1 Bft)
02.05.2010 12:36 19,4 C 12,9 C 0,5 UV-I 0,0 C 52 % 86 % 0 % 1009,4 hPa 0,0 l/m 0,8 km/h (0 Bft) 0 min 4,4 km/h (1 Bft)
02.05.2010 12:38 19,2 C 12,9 C 0,5 UV-I 0,0 C 52 % 85 % 0 % 1009,4 hPa 0,0 l/m 0,8 km/h (0 Bft) 0 min 0,0 km/h (0 Bft)
02.05.2010 12:40 19,2 C 12,9 C 0,4 UV-I 0,0 C 52 % 85 % 0 % 1009,4 hPa 0,0 l/m 1,2 km/h (1 Bft) 0 min 6,4 km/h (2 Bft)
02.05.2010 12:44 19,2 C 12,9 C 0,4 UV-I 0,0 C 52 % 85 % 0 % 1009,4 hPa 0,0 l/m 2,0 km/h (1 Bft) 0 min 6,0 km/h (2 Bft)
02.05.2010 12:46 19,2 C 12,9 C 0,1 UV-I 0,0 C 52 % 85 % 0 % 1009,4 hPa 0,0 l/m 2,0 km/h (1 Bft) 0 min 4,4 km/h (1 Bft)
02.05.2010 12:48 19,2 C 12,9 C 0,1 UV-I 0,0 C 52 % 85 % 0 % 1009,4 hPa 0,0 l/m 1,6 km/h (1 Bft) 0 min 4,0 km/h (1 Bft)
02.05.2010 12:50 19,2 C 12,8 C 0,2 UV-I 0,0 C 52 % 85 % 0 % 1009,4 hPa 0,0 l/m 2,0 km/h (1 Bft) 0 min 4,0 km/h (1 Bft)
02.05.2010 12:52 19,3 C 12,8 C 0,2 UV-I 0,0 C 52 % 85 % 0 % 1009,2 hPa 0,0 l/m 2,0 km/h (1 Bft) 0 min 6,4 km/h (2 Bft)
02.05.2010 12:54 19,3 C 12,8 C 0,2 UV-I 0,0 C 52 % 85 % 0 % 1009,2 hPa 0,1 l/m 2,8 km/h (1 Bft) 0 min 6,8 km/h (2 Bft)
02.05.2010 12:56 19,3 C 12,7 C 0,1 UV-I 0,0 C 52 % 85 % 0 % 1009,2 hPa 0,0 l/m 2,8 km/h (1 Bft) 0 min 0,0 km/h (0 Bft)
02.05.2010 12:58 19,3 C 12,7 C 0,1 UV-I 0,0 C 52 % 85 % 0 % 1009,2 hPa 0,1 l/m 2,8 km/h (1 Bft) 0 min 0,0 km/h (0 Bft)
02.05.2010 13:00 19,3 C 12,6 C 0,1 UV-I 0,0 C 52 % 85 % 0 % 1009,2 hPa 0,1 l/m 2,8 km/h (1 Bft) 0 min 4,4 km/h (1 Bft)
02.05.2010 13:02 19,2 C 12,6 C 0,1 UV-I 0,0 C 52 % 85 % 0 % 1009,2 hPa 0,0 l/m 2,8 km/h (1 Bft) 0 min 5,6 km/h (1 Bft)
02.05.2010 13:04 19,3 C 12,5 C 0,1 UV-I 0,0 C 52 % 86 % 0 % 1009,2 hPa 0,2 l/m 3,2 km/h (1 Bft) 0 min 8,0 km/h (2 Bft)
02.05.2010 13:06 19,2 C 12,4 C 0,0 UV-I 0,0 C 52 % 86 % 0 % 1009,2 hPa 0,2 l/m 2,4 km/h (1 Bft) 0 min 8,0 km/h (2 Bft)
02.05.2010 13:08 19,2 C 12,4 C 0,0 UV-I 0,0 C 52 % 86 % 0 % 1009,2 hPa 0,0 l/m 2,4 km/h (1 Bft) 0 min 0,0 km/h (0 Bft)
02.05.2010 13:12 19,2 C 12,3 C 0,6 UV-I 0,0 C 52 % 87 % 0 % 1009,0 hPa 0,1 l/m 2,4 km/h (1 Bft) 0 min 4,8 km/h (1 Bft)
02.05.2010 13:14 19,2 C 12,3 C 0,6 UV-I 0,0 C 52 % 87 % 0 % 1009,0 hPa 0,2 l/m 2,0 km/h (1 Bft) 0 min 0,0 km/h (0 Bft)
02.05.2010 13:16 19,2 C 12,3 C 0,8 UV-I 0,0 C 52 % 87 % 0 % 1009,0 hPa 0,3 l/m 1,6 km/h (1 Bft) 0 min 0,0 km/h (0 Bft)
02.05.2010 13:18 19,2 C 12,3 C 0,8 UV-I 0,0 C 52 % 87 % 0 % 1009,0 hPa 0,0 l/m 0,8 km/h (0 Bft) 0 min 0,0 km/h (0 Bft)
02.05.2010 13:20 19,2 C 12,3 C 0,2 UV-I 0,0 C 52 % 87 % 0 % 1009,0 hPa 0,2 l/m 0,8 km/h (0 Bft) 0 min 0,0 km/h (0 Bft)
02.05.2010 13:22 19,2 C 12,3 C 0,2 UV-I 0,0 C 52 % 88 % 0 % 1009,0 hPa 0,3 l/m 0,4 km/h (0 Bft) 0 min 0,0 km/h (0 Bft)
02.05.2010 13:26 19,2 C 12,1 C 0,1 UV-I 0,0 C 53 % 88 % 0 % 1009,0 hPa 0,8 l/m 0,4 km/h (0 Bft) 0 min 0,0 km/h (0 Bft)
02.05.2010 13:28 19,2 C 12,2 C 0,1 UV-I 0,0 C 53 % 88 % 0 % 1009,0 hPa 1,5 l/m 0,8 km/h (0 Bft) 0 min 0,0 km/h (0 Bft)
02.05.2010 13:30 19,2 C 12,1 C 0,5 UV-I 0,0 C 53 % 88 % 0 % 1009,0 hPa 0,0 l/m 0,8 km/h (0 Bft) 0 min 0,0 km/h (0 Bft)
02.05.2010 13:32 19,2 C 12,1 C 0,5 UV-I 0,0 C 53 % 88 % 0 % 1009,0 hPa 0,8 l/m 0,8 km/h (0 Bft) 0 min 0,0 km/h (0 Bft)
02.05.2010 13:34 19,2 C 12,0 C 0,5 UV-I 0,0 C 53 % 89 % 0 % 1009,0 hPa 0,2 l/m 0,8 km/h (0 Bft) 0 min 0,0 km/h (0 Bft)
02.05.2010 13:36 19,2 C 12,0 C 2,4 UV-I 0,0 C 53 % 89 % 0 % 1009,0 hPa 0,0 l/m 0,8 km/h (0 Bft) 0 min 0,0 km/h (0 Bft)
02.05.2010 13:38 19,2 C 12,1 C 2,4 UV-I 0,0 C 53 % 89 % 0 % 1009,0 hPa 0,1 l/m 0,0 km/h (0 Bft) 0 min 0,0 km/h (0 Bft)
02.05.2010 13:40 19,2 C 12,1 C 3,7 UV-I 0,0 C 53 % 89 % 0 % 1009,0 hPa 0,0 l/m 0,0 km/h (0 Bft) 0 min 0,0 km/h (0 Bft)
02.05.2010 13:42 19,2 C 12,1 C 3,7 UV-I 0,2 C 53 % 89 % 6 % 1009,0 hPa 0,0 l/m 0,0 km/h (0 Bft) 0 min 0,0 km/h (0 Bft)
02.05.2010 13:44 19,2 C 12,3 C 3,7 UV-I 0,2 C 53 % 90 % 6 % 1009,0 hPa 0,1 l/m 0,0 km/h (0 Bft) 0 min 4,8 km/h (1 Bft)
02.05.2010 13:46 19,2 C 12,3 C 2,4 UV-I 0,3 C 53 % 90 % 9 % 1009,0 hPa 0,1 l/m 1,2 km/h (1 Bft) 0 min 6,4 km/h (2 Bft)
02.05.2010 13:48 19,2 C 12,4 C 2,4 UV-I 0,2 C 53 % 90 % 6 % 1009,0 hPa 0,0 l/m 2,4 km/h (1 Bft) 0 min 8,0 km/h (2 Bft)
02.05.2010 13:50 19,2 C 12,4 C 7,4 UV-I 0,6 C 53 % 90 % 17 % 1009,0 hPa 0,1 l/m 3,2 km/h (1 Bft) 0 min 6,0 km/h (2 Bft)
02.05.2010 13:52 19,3 C 12,7 C 7,4 UV-I 0,7 C 53 % 90 % 20 % 1008,9 hPa 0,0 l/m 4,0 km/h (1 Bft) 0 min 10,4 km/h (2 Bft)
02.05.2010 13:54 19,2 C 12,8 C 7,4 UV-I 1,2 C 53 % 90 % 34 % 1008,9 hPa 0,0 l/m 4,4 km/h (1 Bft) 0 min 6,8 km/h (2 Bft)
02.05.2010 13:56 19,4 C 12,9 C 9,8 UV-I 2,0 C 53 % 91 % 57 % 1008,9 hPa 0,0 l/m 5,2 km/h (1 Bft) 0 min 6,0 km/h (2 Bft)
02.05.2010 13:58 19,4 C 13,2 C 9,8 UV-I 2,7 C 53 % 91 % 77 % 1008,9 hPa 0,0 l/m 5,2 km/h (1 Bft) 0 min 9,2 km/h (2 Bft)
02.05.2010 14:00 19,4 C 13,4 C 10,8 UV-I 3,4 C 53 % 91 % 97 % 1008,9 hPa 0,0 l/m 4,4 km/h (1 Bft) 2 min 5,2 km/h (1 Bft)
02.05.2010 14:02 19,5 C 13,5 C 10,8 UV-I 4,0 C 53 % 90 % 100 % 1008,9 hPa 0,0 l/m 4,4 km/h (1 Bft) 2 min 4,0 km/h (1 Bft)
02.05.2010 14:04 19,6 C 13,6 C 10,8 UV-I 4,8 C 53 % 90 % 100 % 1008,9 hPa 0,0 l/m 4,4 km/h (1 Bft) 2 min 5,6 km/h (1 Bft)
02.05.2010 14:06 19,6 C 13,8 C 9,6 UV-I 5,0 C 53 % 89 % 100 % 1008,9 hPa 0,0 l/m 3,6 km/h (1 Bft) 2 min 0,0 km/h (0 Bft)
02.05.2010 14:08 19,7 C 13,8 C 9,6 UV-I 5,3 C 53 % 89 % 100 % 1008,9 hPa 0,0 l/m 2,8 km/h (1 Bft) 2 min 0,0 km/h (0 Bft)
02.05.2010 14:10 19,8 C 13,9 C 6,9 UV-I 5,3 C 53 % 89 % 100 % 1008,9 hPa 0,0 l/m 2,0 km/h (1 Bft) 2 min 6,0 km/h (2 Bft)
02.05.2010 14:12 19,8 C 14,1 C 6,9 UV-I 5,0 C 53 % 88 % 100 % 1010,1 hPa 0,0 l/m 2,8 km/h (1 Bft) 2 min 12,8 km/h (3 Bft)
02.05.2010 14:14 19,9 C 14,0 C 6,9 UV-I 4,8 C 52 % 87 % 100 % 1010,1 hPa 0,0 l/m 3,2 km/h (1 Bft) 2 min 6,8 km/h (2 Bft)
02.05.2010 14:16 20,0 C 14,0 C 6,6 UV-I 4,4 C 52 % 86 % 100 % 1010,1 hPa 0,0 l/m 3,6 km/h (1 Bft) 2 min 4,0 km/h (1 Bft)
02.05.2010 14:18 20,0 C 14,2 C 6,6 UV-I 4,2 C 52 % 86 % 100 % 1010,1 hPa 0,0 l/m 3,2 km/h (1 Bft) 2 min 4,0 km/h (1 Bft)
02.05.2010 14:20 20,1 C 14,3 C 10,9 UV-I 4,9 C 52 % 87 % 100 % 1010,1 hPa 0,0 l/m 4,8 km/h (1 Bft) 2 min 6,8 km/h (2 Bft)
02.05.2010 14:22 20,2 C 14,5 C 10,9 UV-I 5,2 C 52 % 87 % 100 % 1010,1 hPa 0,0 l/m 4,4 km/h (1 Bft) 2 min 0,0 km/h (0 Bft)
02.05.2010 14:24 20,3 C 14,7 C 10,9 UV-I 5,7 C 52 % 86 % 100 % 1010,1 hPa 0,0 l/m 4,0 km/h (1 Bft) 2 min 15,7 km/h (3 Bft)
02.05.2010 14:30 20,5 C 14,8 C 6,7 UV-I 5,8 C 52 % 84 % 100 % 1010,1 hPa 0,0 l/m 3,6 km/h (1 Bft) 2 min 0,0 km/h (0 Bft)
02.05.2010 14:32 20,6 C 14,9 C 6,7 UV-I 5,7 C 52 % 84 % 100 % 1010,8 hPa 0,0 l/m 2,8 km/h (1 Bft) 2 min 4,0 km/h (1 Bft)
02.05.2010 14:34 20,6 C 15,1 C 6,7 UV-I 5,5 C 52 % 84 % 100 % 1010,8 hPa 0,0 l/m 3,2 km/h (1 Bft) 2 min 5,6 km/h (1 Bft)
02.05.2010 14:36 20,7 C 15,0 C 8,6 UV-I 5,7 C 51 % 82 % 100 % 1010,8 hPa 0,0 l/m 2,4 km/h (1 Bft) 2 min 6,8 km/h (2 Bft)
02.05.2010 14:38 20,8 C 15,2 C 8,6 UV-I 5,5 C 51 % 82 % 100 % 1010,8 hPa 0,0 l/m 2,8 km/h (1 Bft) 2 min 5,6 km/h (1 Bft)
02.05.2010 14:40 20,8 C 15,3 C 9,5 UV-I 5,7 C 51 % 81 % 100 % 1010,8 hPa 0,0 l/m 2,8 km/h (1 Bft) 2 min 8,0 km/h (2 Bft)
02.05.2010 14:42 20,9 C 15,3 C 9,5 UV-I 6,2 C 51 % 79 % 100 % 1010,8 hPa 0,0 l/m 3,6 km/h (1 Bft) 2 min 8,0 km/h (2 Bft)
02.05.2010 14:44 21,0 C 15,5 C 9,5 UV-I 6,1 C 51 % 78 % 100 % 1010,8 hPa 0,0 l/m 3,6 km/h (1 Bft) 2 min 7,2 km/h (2 Bft)
02.05.2010 14:46 21,0 C 15,5 C 9,5 UV-I 6,3 C 51 % 79 % 100 % 1010,8 hPa 0,0 l/m 2,8 km/h (1 Bft) 2 min 0,0 km/h (0 Bft)
02.05.2010 14:48 21,1 C 15,7 C 9,5 UV-I 6,6 C 51 % 79 % 100 % 1010,8 hPa 0,0 l/m 2,0 km/h (1 Bft) 2 min 6,0 km/h (2 Bft)
02.05.2010 14:50 21,2 C 15,9 C 10,5 UV-I 6,6 C 50 % 79 % 100 % 1010,8 hPa 0,0 l/m 3,2 km/h (1 Bft) 2 min 9,2 km/h (2 Bft)
02.05.2010 14:52 21,3 C 15,9 C 10,5 UV-I 6,8 C 50 % 76 % 100 % 1010,6 hPa 0,0 l/m 3,6 km/h (1 Bft) 2 min 7,6 km/h (2 Bft)
02.05.2010 14:56 21,4 C 15,7 C 5,9 UV-I 5,9 C 50 % 76 % 100 % 1010,6 hPa 0,0 l/m 4,4 km/h (1 Bft) 2 min 7,6 km/h (2 Bft)
02.05.2010 14:58 21,4 C 15,7 C 5,9 UV-I 5,5 C 50 % 74 % 100 % 1010,6 hPa 0,0 l/m 4,4 km/h (1 Bft) 2 min 0,0 km/h (0 Bft)
02.05.2010 15:00 21,4 C 15,5 C 5,6 UV-I 5,1 C 49 % 73 % 100 % 1010,6 hPa 0,0 l/m 4,4 km/h (1 Bft) 2 min 6,4 km/h (2 Bft)
02.05.2010 15:02 21,5 C 15,3 C 5,6 UV-I 5,0 C 49 % 74 % 100 % 1010,6 hPa 0,0 l/m 3,6 km/h (1 Bft) 2 min 7,6 km/h (2 Bft)
02.05.2010 15:04 21,5 C 15,3 C 5,6 UV-I 4,4 C 49 % 74 % 100 % 1010,6 hPa 0,0 l/m 3,2 km/h (1 Bft) 2 min 5,2 km/h (1 Bft)
02.05.2010 15:06 21,5 C 15,3 C 5,7 UV-I 4,0 C 49 % 74 % 100 % 1010,6 hPa 0,0 l/m 3,2 km/h (1 Bft) 2 min 0,0 km/h (0 Bft)
02.05.2010 15:08 21,5 C 15,3 C 5,7 UV-I 3,8 C 49 % 75 % 100 % 1010,6 hPa 0,0 l/m 3,2 km/h (1 Bft) 2 min 4,4 km/h (1 Bft)
02.05.2010 15:10 21,5 C 15,3 C 7,1 UV-I 3,7 C 49 % 74 % 100 % 1010,6 hPa 0,0 l/m 2,4 km/h (1 Bft) 2 min 4,8 km/h (1 Bft)
02.05.2010 15:12 21,6 C 15,4 C 7,1 UV-I 3,7 C 49 % 74 % 100 % 1009,7 hPa 0,0 l/m 2,8 km/h (1 Bft) 2 min 5,6 km/h (1 Bft)
02.05.2010 15:14 21,6 C 15,5 C 7,1 UV-I 3,8 C 49 % 74 % 100 % 1009,7 hPa 0,0 l/m 2,0 km/h (1 Bft) 2 min 0,0 km/h (0 Bft)
02.05.2010 15:16 21,7 C 15,6 C 10,3 UV-I 4,4 C 49 % 73 % 100 % 1009,7 hPa 0,0 l/m 2,4 km/h (1 Bft) 2 min 9,2 km/h (2 Bft)
02.05.2010 15:18 21,8 C 15,9 C 10,3 UV-I 4,8 C 49 % 73 % 100 % 1009,7 hPa 0,0 l/m 3,6 km/h (1 Bft) 2 min 7,2 km/h (2 Bft)
02.05.2010 15:20 21,8 C 15,9 C 8,0 UV-I 5,0 C 48 % 72 % 100 % 1009,7 hPa 0,0 l/m 4,0 km/h (1 Bft) 2 min 6,0 km/h (2 Bft)
02.05.2010 15:22 21,9 C 15,7 C 8,0 UV-I 4,9 C 48 % 71 % 100 % 1009,7 hPa 0,0 l/m 4,0 km/h (1 Bft) 2 min 4,4 km/h (1 Bft)
02.05.2010 15:26 21,9 C 15,5 C 4,2 UV-I 4,1 C 48 % 72 % 100 % 1009,7 hPa 0,0 l/m 4,4 km/h (1 Bft) 2 min 6,0 km/h (2 Bft)
02.05.2010 15:28 21,9 C 15,5 C 4,2 UV-I 3,6 C 48 % 73 % 100 % 1009,7 hPa 0,0 l/m 3,6 km/h (1 Bft) 2 min 11,2 km/h (2 Bft)
02.05.2010 15:30 21,9 C 15,3 C 2,1 UV-I 3,4 C 48 % 71 % 97 % 1009,7 hPa 0,0 l/m 3,2 km/h (1 Bft) 2 min 5,6 km/h (1 Bft)
02.05.2010 15:32 21,9 C 15,2 C 2,1 UV-I 2,9 C 48 % 72 % 83 % 1010,2 hPa 0,0 l/m 3,6 km/h (1 Bft) 2 min 8,8 km/h (2 Bft)
02.05.2010 15:34 21,9 C 15,1 C 2,1 UV-I 2,3 C 47 % 67 % 66 % 1010,2 hPa 0,0 l/m 6,0 km/h (2 Bft) 0 min 17,7 km/h (3 Bft)
02.05.2010 15:36 21,8 C 14,4 C 0,1 UV-I 2,3 C 47 % 65 % 66 % 1010,2 hPa 0,0 l/m 7,2 km/h (2 Bft) 0 min 15,7 km/h (3 Bft)
02.05.2010 15:38 21,8 C 13,8 C 0,1 UV-I 1,7 C 47 % 66 % 49 % 1010,2 hPa 0,0 l/m 9,2 km/h (2 Bft) 0 min 26,9 km/h (4 Bft)
02.05.2010 15:42 21,8 C 13,0 C 0,0 UV-I 0,9 C 47 % 71 % 26 % 1010,2 hPa 0,0 l/m 11,6 km/h (2 Bft) 0 min 44,6 km/h (6 Bft)
02.05.2010 15:44 21,8 C 12,8 C 0,0 UV-I 0,4 C 47 % 71 % 11 % 1010,2 hPa 0,0 l/m 11,2 km/h (2 Bft) 0 min 8,8 km/h (2 Bft)
02.05.2010 15:46 21,8 C 12,5 C 0,0 UV-I 0,3 C 46 % 73 % 9 % 1010,2 hPa 0,0 l/m 11,6 km/h (2 Bft) 0 min 34,1 km/h (5 Bft)
02.05.2010 15:48 21,7 C 12,3 C 0,0 UV-I 0,0 C 46 % 75 % 0 % 1010,2 hPa 0,0 l/m 10,8 km/h (2 Bft) 0 min 8,0 km/h (2 Bft)
02.05.2010 15:50 21,7 C 12,0 C 0,0 UV-I 0,0 C 46 % 76 % 0 % 1010,2 hPa 0,0 l/m 9,6 km/h (2 Bft) 0 min 14,1 km/h (3 Bft)
02.05.2010 15:52 21,7 C 11,9 C 0,0 UV-I 0,0 C 46 % 76 % 0 % 1010,1 hPa 0,2 l/m 10,0 km/h (2 Bft) 0 min 8,8 km/h (2 Bft)
02.05.2010 15:54 21,6 C 11,7 C 0,0 UV-I 0,0 C 46 % 78 % 0 % 1010,1 hPa 0,2 l/m 9,6 km/h (2 Bft) 0 min 11,2 km/h (2 Bft)
02.05.2010 15:56 21,6 C 11,6 C 0,0 UV-I 0,0 C 46 % 79 % 0 % 1010,1 hPa 0,0 l/m 8,4 km/h (2 Bft) 0 min 12,4 km/h (3 Bft)
02.05.2010 15:58 21,6 C 11,3 C 0,0 UV-I 0,0 C 46 % 80 % 0 % 1010,1 hPa 0,2 l/m 8,0 km/h (2 Bft) 0 min 10,0 km/h (2 Bft)
02.05.2010 16:00 21,5 C 11,2 C 0,0 UV-I 0,0 C 46 % 81 % 0 % 1010,1 hPa 0,2 l/m 7,6 km/h (2 Bft) 0 min 8,4 km/h (2 Bft)
02.05.2010 16:02 21,5 C 11,1 C 0,0 UV-I 0,0 C 46 % 82 % 0 % 1010,1 hPa 0,0 l/m 7,6 km/h (2 Bft) 0 min 9,6 km/h (2 Bft)
02.05.2010 16:04 21,4 C 10,9 C 0,0 UV-I 0,0 C 47 % 82 % 0 % 1010,1 hPa 0,3 l/m 6,0 km/h (2 Bft) 0 min 6,8 km/h (2 Bft)
02.05.2010 16:06 21,4 C 10,8 C 0,0 UV-I 0,0 C 47 % 83 % 0 % 1010,1 hPa 0,3 l/m 4,8 km/h (1 Bft) 0 min 0,0 km/h (0 Bft)
02.05.2010 16:08 21,4 C 10,8 C 0,0 UV-I 0,0 C 47 % 83 % 0 % 1010,1 hPa 0,0 l/m 4,0 km/h (1 Bft) 0 min 5,2 km/h (1 Bft)
02.05.2010 16:10 21,2 C 10,7 C 0,0 UV-I 0,0 C 47 % 83 % 0 % 1010,1 hPa 0,2 l/m 3,2 km/h (1 Bft) 0 min 0,0 km/h (0 Bft)
02.05.2010 16:12 21,3 C 10,7 C 0,0 UV-I 0,0 C 47 % 84 % 0 % 1009,3 hPa 0,1 l/m 1,6 km/h (1 Bft) 0 min 4,4 km/h (1 Bft)
02.05.2010 16:14 21,2 C 10,5 C 0,0 UV-I 0,0 C 47 % 84 % 0 % 1009,3 hPa 0,0 l/m 0,8 km/h (0 Bft) 0 min 0,0 km/h (0 Bft)
02.05.2010 16:16 21,2 C 10,4 C 0,0 UV-I 0,0 C 47 % 84 % 0 % 1009,3 hPa 0,1 l/m 0,8 km/h (0 Bft) 0 min 0,0 km/h (0 Bft)
02.05.2010 16:18 21,1 C 10,4 C 0,0 UV-I 0,0 C 47 % 85 % 0 % 1009,3 hPa 0,0 l/m 0,8 km/h (0 Bft) 0 min 4,4 km/h (1 Bft)
02.05.2010 16:20 21,0 C 10,3 C 0,0 UV-I 0,0 C 47 % 85 % 0 % 1009,3 hPa 0,1 l/m 0,4 km/h (0 Bft) 0 min 0,0 km/h (0 Bft)
02.05.2010 16:22 21,0 C 10,3 C 0,0 UV-I 0,0 C 47 % 85 % 0 % 1009,3 hPa 0,0 l/m 0,8 km/h (0 Bft) 0 min 5,6 km/h (1 Bft)
02.05.2010 16:24 21,0 C 10,3 C 0,0 UV-I 0,0 C 48 % 86 % 0 % 1009,3 hPa 0,0 l/m 0,8 km/h (0 Bft) 0 min 0,0 km/h (0 Bft)
02.05.2010 16:26 20,9 C 10,3 C 0,0 UV-I 0,0 C 48 % 86 % 0 % 1009,3 hPa 0,0 l/m 0,8 km/h (0 Bft) 0 min 0,0 km/h (0 Bft)
02.05.2010 16:28 20,8 C 10,3 C 0,0 UV-I 0,0 C 48 % 86 % 0 % 1009,3 hPa 0,0 l/m 0,8 km/h (0 Bft) 0 min 0,0 km/h (0 Bft)
02.05.2010 16:32 20,8 C 10,1 C 0,1 UV-I 0,0 C 47 % 86 % 0 % 1008,9 hPa 0,0 l/m 0,4 km/h (0 Bft) 0 min 0,0 km/h (0 Bft)
02.05.2010 16:34 20,7 C 10,1 C 0,1 UV-I 0,0 C 48 % 87 % 0 % 1008,9 hPa 0,0 l/m 0,4 km/h (0 Bft) 0 min 0,0 km/h (0 Bft)
02.05.2010 16:36 20,6 C 10,0 C 0,2 UV-I 0,0 C 48 % 87 % 0 % 1008,9 hPa 0,0 l/m 0,4 km/h (0 Bft) 0 min 4,4 km/h (1 Bft)
02.05.2010 16:38 20,6 C 10,1 C 0,2 UV-I 0,0 C 48 % 87 % 0 % 1008,9 hPa 0,0 l/m 0,0 km/h (0 Bft) 0 min 0,0 km/h (0 Bft)
02.05.2010 16:40 20,6 C 10,0 C 0,1 UV-I 0,0 C 48 % 87 % 0 % 1008,9 hPa 0,0 l/m 0,0 km/h (0 Bft) 0 min 0,0 km/h (0 Bft)
02.05.2010 16:42 20,5 C 10,0 C 0,1 UV-I 0,0 C 48 % 87 % 0 % 1008,9 hPa 0,0 l/m 0,0 km/h (0 Bft) 0 min 0,0 km/h (0 Bft)
02.05.2010 16:44 20,5 C 10,0 C 0,1 UV-I 0,0 C 48 % 88 % 0 % 1008,9 hPa 0,1 l/m 0,4 km/h (0 Bft) 0 min 0,0 km/h (0 Bft)
02.05.2010 16:46 20,4 C 10,1 C 0,1 UV-I 0,0 C 48 % 88 % 0 % 1008,9 hPa 0,0 l/m 0,4 km/h (0 Bft) 0 min 6,0 km/h (2 Bft)
02.05.2010 16:48 20,4 C 10,0 C 0,1 UV-I 0,0 C 49 % 88 % 0 % 1008,9 hPa 0,0 l/m 0,4 km/h (0 Bft) 0 min 0,0 km/h (0 Bft)
02.05.2010 16:50 20,2 C 10,1 C 0,0 UV-I 0,0 C 49 % 88 % 0 % 1008,9 hPa 0,3 l/m 0,4 km/h (0 Bft) 0 min 0,0 km/h (0 Bft)
02.05.2010 16:52 20,3 C 10,1 C 0,0 UV-I 0,0 C 49 % 88 % 0 % 1008,4 hPa 0,4 l/m 0,8 km/h (0 Bft) 0 min 4,0 km/h (1 Bft)
02.05.2010 16:54 20,2 C 10,1 C 0,0 UV-I 0,0 C 49 % 88 % 0 % 1008,4 hPa 0,0 l/m 0,4 km/h (0 Bft) 0 min 0,0 km/h (0 Bft)
02.05.2010 16:56 20,2 C 10,2 C 0,8 UV-I 0,0 C 49 % 89 % 0 % 1008,4 hPa 0,0 l/m 0,4 km/h (0 Bft) 0 min 0,0 km/h (0 Bft)
02.05.2010 16:58 20,2 C 10,3 C 0,8 UV-I 0,0 C 49 % 89 % 0 % 1008,4 hPa 0,0 l/m 0,4 km/h (0 Bft) 0 min 0,0 km/h (0 Bft)
02.05.2010 17:00 20,1 C 10,2 C 1,6 UV-I 0,0 C 49 % 89 % 0 % 1008,4 hPa 0,0 l/m 0,4 km/h (0 Bft) 0 min 0,0 km/h (0 Bft)
02.05.2010 17:02 20,1 C 10,3 C 1,6 UV-I 0,0 C 49 % 89 % 0 % 1008,4 hPa 0,0 l/m 0,4 km/h (0 Bft) 0 min 0,0 km/h (0 Bft)
02.05.2010 17:04 20,1 C 10,3 C 1,6 UV-I 0,0 C 50 % 89 % 0 % 1008,4 hPa 0,0 l/m 0,0 km/h (0 Bft) 0 min 0,0 km/h (0 Bft)
02.05.2010 17:06 20,1 C 10,4 C 2,0 UV-I 0,1 C 50 % 89 % 3 % 1008,4 hPa 0,0 l/m 0,0 km/h (0 Bft) 0 min 0,0 km/h (0 Bft)
02.05.2010 17:10 20,0 C 10,4 C 1,8 UV-I 0,4 C 50 % 89 % 11 % 1008,4 hPa 0,0 l/m 0,8 km/h (0 Bft) 0 min 6,0 km/h (2 Bft)
02.05.2010 17:14 20,0 C 10,5 C 1,8 UV-I 0,5 C 50 % 89 % 14 % 1008,3 hPa 0,0 l/m 0,8 km/h (0 Bft) 0 min 0,0 km/h (0 Bft)
02.05.2010 17:16 20,0 C 10,5 C 2,1 UV-I 0,6 C 50 % 89 % 17 % 1008,3 hPa 0,0 l/m 0,8 km/h (0 Bft) 0 min 0,0 km/h (0 Bft)
02.05.2010 17:18 20,0 C 10,5 C 2,1 UV-I 0,8 C 50 % 89 % 23 % 1008,3 hPa 0,0 l/m 0,8 km/h (0 Bft) 0 min 0,0 km/h (0 Bft)
02.05.2010 17:20 19,9 C 10,7 C 2,4 UV-I 0,8 C 50 % 89 % 23 % 1008,3 hPa 0,1 l/m 0,8 km/h (0 Bft) 0 min 0,0 km/h (0 Bft)
02.05.2010 17:22 19,9 C 10,7 C 2,4 UV-I 1,0 C 51 % 89 % 29 % 1008,3 hPa 0,0 l/m 0,4 km/h (0 Bft) 0 min 10,4 km/h (2 Bft)
02.05.2010 17:24 19,9 C 10,8 C 2,4 UV-I 1,1 C 50 % 90 % 31 % 1008,3 hPa 0,0 l/m 1,2 km/h (1 Bft) 0 min 6,4 km/h (2 Bft)
02.05.2010 17:26 19,9 C 10,9 C 2,4 UV-I 1,1 C 51 % 90 % 31 % 1008,3 hPa 0,0 l/m 1,2 km/h (1 Bft) 0 min 0,0 km/h (0 Bft)
02.05.2010 17:28 19,9 C 10,9 C 2,4 UV-I 1,2 C 51 % 90 % 34 % 1008,3 hPa 0,0 l/m 1,2 km/h (1 Bft) 0 min 4,4 km/h (1 Bft)
02.05.2010 17:30 19,9 C 10,8 C 2,0 UV-I 1,5 C 51 % 89 % 43 % 1008,3 hPa 0,0 l/m 1,2 km/h (1 Bft) 0 min 0,0 km/h (0 Bft)
02.05.2010 17:32 19,9 C 10,8 C 2,0 UV-I 1,5 C 51 % 90 % 43 % 1008,6 hPa 0,0 l/m 1,6 km/h (1 Bft) 0 min 8,0 km/h (2 Bft)
02.05.2010 17:34 19,9 C 10,9 C 2,0 UV-I 1,4 C 51 % 89 % 40 % 1008,6 hPa 0,0 l/m 1,6 km/h (1 Bft) 0 min 5,6 km/h (1 Bft)
02.05.2010 17:36 19,8 C 10,9 C 1,6 UV-I 1,4 C 51 % 89 % 40 % 1008,6 hPa 0,0 l/m 1,2 km/h (1 Bft) 0 min 4,0 km/h (1 Bft)
02.05.2010 17:38 19,8 C 10,9 C 1,6 UV-I 1,3 C 51 % 89 % 37 % 1008,6 hPa 0,0 l/m 1,6 km/h (1 Bft) 0 min 0,0 km/h (0 Bft)
02.05.2010 17:40 19,8 C 11,1 C 1,0 UV-I 1,0 C 51 % 89 % 29 % 1008,6 hPa 0,0 l/m 1,6 km/h (1 Bft) 0 min 5,2 km/h (1 Bft)
02.05.2010 17:42 19,8 C 11,1 C 1,0 UV-I 1,0 C 51 % 89 % 29 % 1008,6 hPa 0,0 l/m 2,0 km/h (1 Bft) 0 min 5,6 km/h (1 Bft)
02.05.2010 17:44 19,8 C 11,0 C 1,0 UV-I 0,9 C 51 % 89 % 26 % 1008,6 hPa 0,0 l/m 1,2 km/h (1 Bft) 0 min 0,0 km/h (0 Bft)
02.05.2010 17:46 19,8 C 11,0 C 0,8 UV-I 0,9 C 51 % 89 % 26 % 1008,6 hPa 0,0 l/m 1,2 km/h (1 Bft) 0 min 6,4 km/h (2 Bft)
02.05.2010 17:48 19,8 C 11,1 C 0,8 UV-I 0,8 C 51 % 89 % 23 % 1008,6 hPa 0,0 l/m 1,6 km/h (1 Bft) 0 min 4,4 km/h (1 Bft)
02.05.2010 17:50 19,8 C 11,0 C 1,1 UV-I 0,8 C 51 % 89 % 23 % 1008,6 hPa 0,0 l/m 1,6 km/h (1 Bft) 0 min 4,4 km/h (1 Bft)
02.05.2010 17:52 19,8 C 11,1 C 1,1 UV-I 0,7 C 51 % 89 % 20 % 1008,4 hPa 0,0 l/m 1,6 km/h (1 Bft) 0 min 0,0 km/h (0 Bft)
02.05.2010 17:56 19,8 C 11,2 C 1,5 UV-I 0,7 C 51 % 89 % 20 % 1008,4 hPa 0,0 l/m 2,0 km/h (1 Bft) 0 min 7,2 km/h (2 Bft)
02.05.2010 17:58 19,8 C 11,2 C 1,5 UV-I 0,7 C 51 % 89 % 20 % 1008,4 hPa 0,0 l/m 1,2 km/h (1 Bft) 0 min 0,0 km/h (0 Bft)
02.05.2010 18:00 19,8 C 11,2 C 1,5 UV-I 0,7 C 51 % 89 % 20 % 1008,4 hPa 0,0 l/m 1,6 km/h (1 Bft) 0 min 0,0 km/h (0 Bft)
02.05.2010 18:02 19,8 C 11,3 C 1,5 UV-I 0,7 C 51 % 89 % 20 % 1008,4 hPa 0,0 l/m 1,2 km/h (1 Bft) 0 min 0,0 km/h (0 Bft)
02.05.2010 18:04 19,7 C 11,2 C 1,5 UV-I 0,9 C 51 % 89 % 26 % 1008,4 hPa 0,0 l/m 1,2 km/h (1 Bft) 0 min 0,0 km/h (0 Bft)
02.05.2010 18:06 19,8 C 11,2 C 1,6 UV-I 0,9 C 51 % 89 % 26 % 1008,4 hPa 0,0 l/m 1,2 km/h (1 Bft) 0 min 4,0 km/h (1 Bft)
02.05.2010 18:08 19,7 C 11,3 C 1,6 UV-I 0,9 C 51 % 90 % 26 % 1008,4 hPa 0,0 l/m 2,0 km/h (1 Bft) 0 min 9,2 km/h (2 Bft)
02.05.2010 18:10 19,7 C 11,3 C 1,8 UV-I 0,9 C 51 % 89 % 26 % 1008,4 hPa 0,0 l/m 2,4 km/h (1 Bft) 0 min 7,2 km/h (2 Bft)
02.05.2010 18:12 19,7 C 11,3 C 1,8 UV-I 1,0 C 51 % 89 % 29 % 1008,2 hPa 0,0 l/m 2,4 km/h (1 Bft) 0 min 0,0 km/h (0 Bft)
02.05.2010 18:14 19,7 C 11,5 C 1,8 UV-I 0,8 C 52 % 89 % 23 % 1008,2 hPa 0,0 l/m 2,8 km/h (1 Bft) 0 min 7,6 km/h (2 Bft)
02.05.2010 18:16 19,7 C 11,5 C 2,3 UV-I 0,8 C 51 % 89 % 23 % 1008,2 hPa 0,0 l/m 3,6 km/h (1 Bft) 0 min 4,8 km/h (1 Bft)
02.05.2010 18:18 19,7 C 11,5 C 2,3 UV-I 0,9 C 52 % 89 % 26 % 1008,2 hPa 0,0 l/m 4,4 km/h (1 Bft) 0 min 5,6 km/h (1 Bft)
02.05.2010 18:20 19,7 C 11,5 C 2,2 UV-I 0,9 C 52 % 89 % 26 % 1008,2 hPa 0,0 l/m 4,0 km/h (1 Bft) 0 min 12,4 km/h (3 Bft)
02.05.2010 18:22 19,7 C 11,4 C 2,2 UV-I 1,0 C 52 % 89 % 29 % 1008,2 hPa 0,0 l/m 4,4 km/h (1 Bft) 0 min 4,8 km/h (1 Bft)
02.05.2010 18:24 19,8 C 11,5 C 2,2 UV-I 1,0 C 52 % 89 % 29 % 1008,2 hPa 0,0 l/m 5,2 km/h (1 Bft) 0 min 6,0 km/h (2 Bft)
02.05.2010 18:28 19,8 C 11,5 C 2,1 UV-I 1,0 C 52 % 89 % 29 % 1008,2 hPa 0,0 l/m 4,4 km/h (1 Bft) 0 min 0,0 km/h (0 Bft)
02.05.2010 18:30 19,8 C 11,5 C 1,3 UV-I 1,0 C 52 % 89 % 29 % 1008,2 hPa 0,0 l/m 4,4 km/h (1 Bft) 0 min 5,2 km/h (1 Bft)
02.05.2010 18:32 19,8 C 11,5 C 1,3 UV-I 0,9 C 52 % 89 % 26 % 1008,3 hPa 0,0 l/m 3,6 km/h (1 Bft) 0 min 4,4 km/h (1 Bft)
02.05.2010 18:34 19,8 C 11,4 C 1,3 UV-I 0,9 C 52 % 89 % 26 % 1008,3 hPa 0,0 l/m 4,0 km/h (1 Bft) 0 min 7,6 km/h (2 Bft)
02.05.2010 18:36 19,7 C 11,4 C 0,7 UV-I 0,7 C 52 % 89 % 20 % 1008,3 hPa 0,0 l/m 4,0 km/h (1 Bft) 0 min 6,8 km/h (2 Bft)
02.05.2010 18:38 19,7 C 11,5 C 0,7 UV-I 0,5 C 52 % 89 % 14 % 1008,3 hPa 0,0 l/m 4,0 km/h (1 Bft) 0 min 4,0 km/h (1 Bft)
02.05.2010 18:40 19,7 C 11,5 C 0,4 UV-I 0,4 C 51 % 89 % 11 % 1008,3 hPa 0,0 l/m 4,0 km/h (1 Bft) 0 min 4,4 km/h (1 Bft)
02.05.2010 18:42 19,7 C 11,5 C 0,4 UV-I 0,3 C 52 % 89 % 9 % 1008,3 hPa 0,0 l/m 4,0 km/h (1 Bft) 0 min 7,2 km/h (2 Bft)
02.05.2010 18:44 19,7 C 11,5 C 0,4 UV-I 0,2 C 52 % 89 % 6 % 1008,3 hPa 0,0 l/m 3,6 km/h (1 Bft) 0 min 6,4 km/h (2 Bft)
02.05.2010 18:46 19,7 C 11,5 C 0,5 UV-I 0,1 C 52 % 89 % 3 % 1008,3 hPa 0,0 l/m 3,2 km/h (1 Bft) 0 min 0,0 km/h (0 Bft)
02.05.2010 18:48 19,7 C 11,4 C 0,5 UV-I 0,1 C 52 % 89 % 3 % 1008,3 hPa 0,0 l/m 3,2 km/h (1 Bft) 0 min 7,2 km/h (2 Bft)
02.05.2010 18:52 19,7 C 11,3 C 0,5 UV-I 0,1 C 52 % 89 % 3 % 1008,2 hPa 0,0 l/m 2,8 km/h (1 Bft) 0 min 7,2 km/h (2 Bft)
02.05.2010 18:54 19,6 C 11,5 C 0,5 UV-I 0,0 C 52 % 89 % 0 % 1008,2 hPa 0,0 l/m 2,8 km/h (1 Bft) 0 min 6,8 km/h (2 Bft)
02.05.2010 18:58 19,6 C 11,3 C 0,1 UV-I 0,0 C 52 % 89 % 0 % 1008,2 hPa 0,0 l/m 3,2 km/h (1 Bft) 0 min 6,8 km/h (2 Bft)
02.05.2010 19:00 19,6 C 11,2 C 0,0 UV-I 0,0 C 52 % 89 % 0 % 1008,2 hPa 0,1 l/m 3,2 km/h (1 Bft) 0 min 4,4 km/h (1 Bft)
02.05.2010 19:02 19,6 C 11,2 C 0,0 UV-I 0,0 C 52 % 89 % 0 % 1008,2 hPa 0,0 l/m 3,2 km/h (1 Bft) 0 min 5,2 km/h (1 Bft)
02.05.2010 19:04 19,6 C 11,3 C 0,0 UV-I 0,0 C 52 % 89 % 0 % 1008,2 hPa 0,0 l/m 3,2 km/h (1 Bft) 0 min 5,2 km/h (1 Bft)
02.05.2010 19:08 19,6 C 11,1 C 0,0 UV-I 0,0 C 52 % 88 % 0 % 1008,2 hPa 0,1 l/m 4,8 km/h (1 Bft) 0 min 11,6 km/h (2 Bft)
02.05.2010 19:10 19,6 C 11,0 C 0,0 UV-I 0,0 C 52 % 87 % 0 % 1008,2 hPa 0,4 l/m 5,2 km/h (1 Bft) 0 min 23,7 km/h (4 Bft)
02.05.2010 19:12 19,6 C 10,8 C 0,0 UV-I 0,0 C 52 % 86 % 0 % 1008,6 hPa 0,7 l/m 6,0 km/h (2 Bft) 0 min 15,3 km/h (3 Bft)
02.05.2010 19:16 19,6 C 10,5 C 0,0 UV-I 0,0 C 52 % 86 % 0 % 1008,6 hPa 0,2 l/m 7,2 km/h (2 Bft) 0 min 7,2 km/h (2 Bft)
02.05.2010 19:18 19,6 C 10,3 C 0,0 UV-I 0,0 C 52 % 86 % 0 % 1008,6 hPa 0,0 l/m 6,0 km/h (2 Bft) 0 min 10,4 km/h (2 Bft)
02.05.2010 19:20 19,6 C 10,2 C 0,1 UV-I 0,0 C 52 % 87 % 0 % 1008,6 hPa 0,1 l/m 5,2 km/h (1 Bft) 0 min 0,0 km/h (0 Bft)
02.05.2010 19:22 19,6 C 10,0 C 0,1 UV-I 0,0 C 52 % 87 % 0 % 1008,6 hPa 0,1 l/m 4,4 km/h (1 Bft) 0 min 6,8 km/h (2 Bft)
02.05.2010 19:24 19,6 C 10,0 C 0,1 UV-I 0,0 C 52 % 87 % 0 % 1008,6 hPa 0,0 l/m 4,4 km/h (1 Bft) 0 min 6,8 km/h (2 Bft)
02.05.2010 19:26 19,5 C 9,9 C 0,1 UV-I 0,0 C 52 % 87 % 0 % 1008,6 hPa 0,1 l/m 4,0 km/h (1 Bft) 0 min 6,8 km/h (2 Bft)
02.05.2010 19:28 19,5 C 9,8 C 0,1 UV-I 0,0 C 52 % 87 % 0 % 1008,6 hPa 0,1 l/m 3,2 km/h (1 Bft) 0 min 0,0 km/h (0 Bft)
02.05.2010 19:30 19,5 C 9,9 C 0,2 UV-I 0,0 C 52 % 88 % 0 % 1008,6 hPa 0,0 l/m 2,8 km/h (1 Bft) 0 min 0,0 km/h (0 Bft)
02.05.2010 19:32 19,5 C 9,9 C 0,2 UV-I 0,0 C 52 % 88 % 0 % 1008,3 hPa 0,0 l/m 2,8 km/h (1 Bft) 0 min 0,0 km/h (0 Bft)
02.05.2010 19:34 19,5 C 9,8 C 0,2 UV-I 0,0 C 52 % 88 % 0 % 1008,3 hPa 0,0 l/m 2,4 km/h (1 Bft) 0 min 0,0 km/h (0 Bft)
02.05.2010 19:38 19,4 C 9,7 C 0,2 UV-I 0,0 C 52 % 88 % 0 % 1008,3 hPa 0,0 l/m 1,2 km/h (1 Bft) 0 min 0,0 km/h (0 Bft)
02.05.2010 19:40 19,4 C 9,7 C 0,2 UV-I 0,0 C 52 % 88 % 0 % 1008,3 hPa 0,0 l/m 1,2 km/h (1 Bft) 0 min 0,0 km/h (0 Bft)
02.05.2010 19:42 19,4 C 9,7 C 0,2 UV-I 0,0 C 52 % 88 % 0 % 1008,3 hPa 0,0 l/m 0,8 km/h (0 Bft) 0 min 0,0 km/h (0 Bft)
02.05.2010 19:44 19,4 C 9,6 C 0,2 UV-I 0,0 C 52 % 88 % 0 % 1008,3 hPa 0,0 l/m 0,4 km/h (0 Bft) 0 min 0,0 km/h (0 Bft)
02.05.2010 19:46 19,2 C 9,6 C 0,1 UV-I 0,0 C 52 % 88 % 0 % 1008,3 hPa 0,0 l/m 0,0 km/h (0 Bft) 0 min 0,0 km/h (0 Bft)
02.05.2010 19:48 19,2 C 9,6 C 0,1 UV-I 0,0 C 52 % 88 % 0 % 1008,3 hPa 0,0 l/m 0,0 km/h (0 Bft) 0 min 0,0 km/h (0 Bft)
02.05.2010 19:50 19,2 C 9,6 C 0,0 UV-I 0,0 C 52 % 89 % 0 % 1008,3 hPa 0,0 l/m 0,0 km/h (0 Bft) 0 min 0,0 km/h (0 Bft)
02.05.2010 19:52 19,2 C 9,6 C 0,0 UV-I 0,0 C 52 % 89 % 0 % 1008,8 hPa 0,0 l/m 0,0 km/h (0 Bft) 0 min 0,0 km/h (0 Bft)
02.05.2010 19:54 19,3 C 9,7 C 0,0 UV-I 0,0 C 52 % 89 % 0 % 1008,8 hPa 0,0 l/m 0,0 km/h (0 Bft) 0 min 0,0 km/h (0 Bft)
02.05.2010 19:56 19,2 C 9,6 C 0,0 UV-I 0,0 C 53 % 89 % 0 % 1008,8 hPa 0,0 l/m 0,0 km/h (0 Bft) 0 min 0,0 km/h (0 Bft)
02.05.2010 19:58 19,2 C 9,6 C 0,0 UV-I 0,0 C 53 % 90 % 0 % 1008,8 hPa 0,0 l/m 0,0 km/h (0 Bft) 0 min 0,0 km/h (0 Bft)
02.05.2010 20:00 19,2 C 9,7 C 0,0 UV-I 0,0 C 53 % 90 % 0 % 1008,8 hPa 0,0 l/m 0,0 km/h (0 Bft) 0 min 0,0 km/h (0 Bft)
02.05.2010 20:02 19,2 C 9,6 C 0,0 UV-I 0,0 C 53 % 90 % 0 % 1008,8 hPa 0,0 l/m 0,0 km/h (0 Bft) 0 min 0,0 km/h (0 Bft)
02.05.2010 20:04 19,2 C 9,6 C 0,0 UV-I 0,0 C 53 % 90 % 0 % 1008,8 hPa 0,0 l/m 0,0 km/h (0 Bft) 0 min 0,0 km/h (0 Bft)
02.05.2010 20:06 19,2 C 9,7 C 0,0 UV-I 0,0 C 53 % 90 % 0 % 1008,8 hPa 0,0 l/m 0,0 km/h (0 Bft) 0 min 0,0 km/h (0 Bft)
02.05.2010 20:08 19,2 C 9,7 C 0,0 UV-I 0,0 C 53 % 90 % 0 % 1008,8 hPa 0,0 l/m 0,0 km/h (0 Bft) 0 min 0,0 km/h (0 Bft)
02.05.2010 20:10 19,2 C 9,7 C 0,0 UV-I 0,0 C 53 % 90 % 0 % 1008,8 hPa 0,0 l/m 0,0 km/h (0 Bft) 0 min 0,0 km/h (0 Bft)
02.05.2010 20:12 19,2 C 9,7 C 0,0 UV-I 0,0 C 53 % 90 % 0 % 1009,1 hPa 0,0 l/m 0,0 km/h (0 Bft) 0 min 0,0 km/h (0 Bft)
02.05.2010 20:14 19,1 C 9,7 C 0,0 UV-I 0,0 C 53 % 90 % 0 % 1009,1 hPa 0,0 l/m 0,0 km/h (0 Bft) 0 min 0,0 km/h (0 Bft)
02.05.2010 20:16 19,1 C 9,6 C 0,0 UV-I 0,0 C 53 % 90 % 0 % 1009,1 hPa 0,0 l/m 0,0 km/h (0 Bft) 0 min 0,0 km/h (0 Bft)
02.05.2010 20:18 19,1 C 9,7 C 0,0 UV-I 0,0 C 53 % 90 % 0 % 1009,1 hPa 0,0 l/m 0,4 km/h (0 Bft) 0 min 7,2 km/h (2 Bft)
02.05.2010 20:20 19,1 C 9,7 C 0,0 UV-I 0,0 C 53 % 90 % 0 % 1009,1 hPa 0,0 l/m 1,2 km/h (1 Bft) 0 min 5,2 km/h (1 Bft)
02.05.2010 20:22 19,1 C 9,6 C 0,0 UV-I 0,0 C 53 % 90 % 0 % 1009,1 hPa 0,0 l/m 1,6 km/h (1 Bft) 0 min 0,0 km/h (0 Bft)
02.05.2010 20:24 19,0 C 9,6 C 0,0 UV-I 0,0 C 53 % 90 % 0 % 1009,1 hPa 0,0 l/m 2,0 km/h (1 Bft) 0 min 0,0 km/h (0 Bft)
02.05.2010 20:28 19,0 C 9,6 C 0,0 UV-I 0,0 C 53 % 90 % 0 % 1009,1 hPa 0,0 l/m 2,0 km/h (1 Bft) 0 min 0,0 km/h (0 Bft)
02.05.2010 20:30 19,0 C 9,6 C 0,0 UV-I 0,0 C 53 % 90 % 0 % 1009,1 hPa 0,0 l/m 1,2 km/h (1 Bft) 0 min 0,0 km/h (0 Bft)
02.05.2010 20:32 19,0 C 9,6 C 0,0 UV-I 0,0 C 53 % 90 % 0 % 1009,2 hPa 0,0 l/m 0,4 km/h (0 Bft) 0 min 0,0 km/h (0 Bft)
02.05.2010 20:34 19,0 C 9,7 C 0,0 UV-I 0,0 C 53 % 90 % 0 % 1009,2 hPa 0,0 l/m 0,0 km/h (0 Bft) 0 min 0,0 km/h (0 Bft)
02.05.2010 20:38 19,0 C 9,6 C 0,0 UV-I 0,0 C 53 % 90 % 0 % 1009,2 hPa 0,0 l/m 0,0 km/h (0 Bft) 0 min 0,0 km/h (0 Bft)
02.05.2010 20:42 19,0 C 9,7 C 0,0 UV-I 0,0 C 53 % 90 % 0 % 1009,2 hPa 0,0 l/m 0,0 km/h (0 Bft) 0 min 0,0 km/h (0 Bft)
02.05.2010 20:44 19,0 C 9,6 C 0,0 UV-I 0,0 C 53 % 90 % 0 % 1009,2 hPa 0,0 l/m 0,0 km/h (0 Bft) 0 min 0,0 km/h (0 Bft)
02.05.2010 20:46 19,0 C 9,7 C 0,0 UV-I 0,0 C 53 % 91 % 0 % 1009,2 hPa 0,0 l/m 0,0 km/h (0 Bft) 0 min 0,0 km/h (0 Bft)
02.05.2010 20:48 18,9 C 9,6 C 0,0 UV-I 0,0 C 53 % 91 % 0 % 1009,2 hPa 0,0 l/m 0,0 km/h (0 Bft) 0 min 0,0 km/h (0 Bft)
02.05.2010 20:50 18,9 C 9,6 C 0,0 UV-I 0,0 C 53 % 91 % 0 % 1009,2 hPa 0,0 l/m 0,0 km/h (0 Bft) 0 min 0,0 km/h (0 Bft)
02.05.2010 20:52 18,9 C 9,6 C 0,0 UV-I 0,0 C 53 % 91 % 0 % 1008,9 hPa 0,0 l/m 0,0 km/h (0 Bft) 0 min 0,0 km/h (0 Bft)
02.05.2010 20:54 18,9 C 9,6 C 0,0 UV-I 0,0 C 53 % 91 % 0 % 1008,9 hPa 0,0 l/m 0,0 km/h (0 Bft) 0 min 0,0 km/h (0 Bft)
02.05.2010 20:56 18,9 C 9,6 C 0,0 UV-I 0,0 C 53 % 91 % 0 % 1008,9 hPa 0,0 l/m 0,0 km/h (0 Bft) 0 min 0,0 km/h (0 Bft)
02.05.2010 20:58 18,9 C 9,6 C 0,0 UV-I 0,0 C 53 % 91 % 0 % 1008,9 hPa 0,0 l/m 0,0 km/h (0 Bft) 0 min 0,0 km/h (0 Bft)
02.05.2010 21:00 18,9 C 9,6 C 0,0 UV-I 0,0 C 53 % 91 % 0 % 1008,9 hPa 0,0 l/m 0,0 km/h (0 Bft) 0 min 0,0 km/h (0 Bft)
02.05.2010 21:02 18,9 C 9,6 C 0,0 UV-I 0,0 C 54 % 91 % 0 % 1008,9 hPa 0,0 l/m 0,0 km/h (0 Bft) 0 min 0,0 km/h (0 Bft)
02.05.2010 21:06 18,8 C 9,6 C 0,0 UV-I 0,0 C 53 % 91 % 0 % 1008,9 hPa 0,0 l/m 0,0 km/h (0 Bft) 0 min 0,0 km/h (0 Bft)
02.05.2010 21:08 18,8 C 9,6 C 0,0 UV-I 0,0 C 54 % 91 % 0 % 1008,9 hPa 0,0 l/m 0,0 km/h (0 Bft) 0 min 0,0 km/h (0 Bft)
02.05.2010 21:10 18,8 C 9,6 C 0,0 UV-I 0,0 C 54 % 91 % 0 % 1008,9 hPa 0,0 l/m 0,0 km/h (0 Bft) 0 min 0,0 km/h (0 Bft)
02.05.2010 21:12 18,8 C 9,5 C 0,0 UV-I 0,0 C 54 % 91 % 0 % 1009,2 hPa 0,0 l/m 0,0 km/h (0 Bft) 0 min 0,0 km/h (0 Bft)
02.05.2010 21:14 18,8 C 9,5 C 0,0 UV-I 0,0 C 54 % 91 % 0 % 1009,2 hPa 0,0 l/m 0,0 km/h (0 Bft) 0 min 0,0 km/h (0 Bft)
02.05.2010 21:16 18,8 C 9,5 C 0,0 UV-I 0,0 C 54 % 91 % 0 % 1009,2 hPa 0,0 l/m 0,0 km/h (0 Bft) 0 min 0,0 km/h (0 Bft)
02.05.2010 21:18 18,8 C 9,5 C 0,0 UV-I 0,0 C 54 % 91 % 0 % 1009,2 hPa 0,0 l/m 0,0 km/h (0 Bft) 0 min 0,0 km/h (0 Bft)
02.05.2010 21:20 18,8 C 9,5 C 0,0 UV-I 0,0 C 54 % 91 % 0 % 1009,2 hPa 0,0 l/m 0,0 km/h (0 Bft) 0 min 0,0 km/h (0 Bft)
02.05.2010 21:22 18,8 C 9,5 C 0,0 UV-I 0,0 C 54 % 91 % 0 % 1009,2 hPa 0,0 l/m 0,4 km/h (0 Bft) 0 min 4,4 km/h (1 Bft)
02.05.2010 21:24 18,8 C 9,5 C 0,0 UV-I 0,0 C 54 % 91 % 0 % 1009,2 hPa 0,0 l/m 0,4 km/h (0 Bft) 0 min 0,0 km/h (0 Bft)
02.05.2010 21:26 18,8 C 9,5 C 0,0 UV-I 0,0 C 54 % 91 % 0 % 1009,2 hPa 0,0 l/m 0,8 km/h (0 Bft) 0 min 4,0 km/h (1 Bft)
02.05.2010 21:28 18,8 C 9,5 C 0,0 UV-I 0,0 C 54 % 91 % 0 % 1009,2 hPa 0,0 l/m 0,8 km/h (0 Bft) 0 min 0,0 km/h (0 Bft)
02.05.2010 21:30 18,8 C 9,6 C 0,0 UV-I 0,0 C 54 % 91 % 0 % 1009,2 hPa 0,0 l/m 0,8 km/h (0 Bft) 0 min 4,4 km/h (1 Bft)
02.05.2010 21:32 18,8 C 9,6 C 0,0 UV-I 0,0 C 54 % 91 % 0 % 1009,4 hPa 0,0 l/m 1,6 km/h (1 Bft) 0 min 0,0 km/h (0 Bft)
02.05.2010 21:34 18,8 C 9,7 C 0,0 UV-I 0,0 C 54 % 91 % 0 % 1009,4 hPa 0,1 l/m 2,0 km/h (1 Bft) 0 min 11,6 km/h (2 Bft)
02.05.2010 21:36 18,8 C 9,6 C 0,0 UV-I 0,0 C 54 % 91 % 0 % 1009,4 hPa 0,0 l/m 3,6 km/h (1 Bft) 0 min 15,3 km/h (3 Bft)
02.05.2010 21:38 18,8 C 9,6 C 0,0 UV-I 0,0 C 54 % 91 % 0 % 1009,4 hPa 0,0 l/m 4,4 km/h (1 Bft) 0 min 14,9 km/h (3 Bft)
02.05.2010 21:40 18,8 C 9,6 C 0,0 UV-I 0,0 C 54 % 91 % 0 % 1009,4 hPa 0,1 l/m 5,6 km/h (1 Bft) 0 min 7,6 km/h (2 Bft)
02.05.2010 21:42 18,8 C 9,6 C 0,0 UV-I 0,0 C 54 % 91 % 0 % 1009,4 hPa 0,1 l/m 6,0 km/h (2 Bft) 0 min 8,8 km/h (2 Bft)
02.05.2010 21:46 18,8 C 9,7 C 0,0 UV-I 0,0 C 53 % 90 % 0 % 1009,4 hPa 0,1 l/m 6,0 km/h (2 Bft) 0 min 9,6 km/h (2 Bft)
02.05.2010 21:48 18,8 C 9,6 C 0,0 UV-I 0,0 C 53 % 90 % 0 % 1009,4 hPa 0,0 l/m 4,8 km/h (1 Bft) 0 min 6,8 km/h (2 Bft)
02.05.2010 21:54 18,8 C 9,4 C 0,0 UV-I 0,0 C 53 % 90 % 0 % 1009,1 hPa 0,0 l/m 3,2 km/h (1 Bft) 0 min 7,2 km/h (2 Bft)
02.05.2010 21:56 18,7 C 9,4 C 0,0 UV-I 0,0 C 53 % 90 % 0 % 1009,1 hPa 0,0 l/m 2,8 km/h (1 Bft) 0 min 4,4 km/h (1 Bft)
02.05.2010 21:58 18,7 C 9,4 C 0,0 UV-I 0,0 C 53 % 90 % 0 % 1009,1 hPa 0,1 l/m 2,0 km/h (1 Bft) 0 min 0,0 km/h (0 Bft)
02.05.2010 22:00 18,7 C 9,5 C 0,0 UV-I 0,0 C 54 % 90 % 0 % 1009,1 hPa 0,0 l/m 2,0 km/h (1 Bft) 0 min 0,0 km/h (0 Bft)
02.05.2010 22:02 18,7 C 9,5 C 0,0 UV-I 0,0 C 54 % 90 % 0 % 1009,1 hPa 0,0 l/m 1,6 km/h (1 Bft) 0 min 6,4 km/h (2 Bft)
02.05.2010 22:04 18,7 C 9,3 C 0,0 UV-I 0,0 C 54 % 90 % 0 % 1009,1 hPa 0,0 l/m 1,2 km/h (1 Bft) 0 min 0,0 km/h (0 Bft)
02.05.2010 22:06 18,6 C 9,4 C 0,0 UV-I 0,0 C 54 % 90 % 0 % 1009,1 hPa 0,0 l/m 1,2 km/h (1 Bft) 0 min 0,0 km/h (0 Bft)
02.05.2010 22:08 18,7 C 9,4 C 0,0 UV-I 0,0 C 54 % 90 % 0 % 1009,1 hPa 0,0 l/m 0,4 km/h (0 Bft) 0 min 0,0 km/h (0 Bft)
02.05.2010 22:10 18,6 C 9,3 C 0,0 UV-I 0,0 C 54 % 90 % 0 % 1009,1 hPa 0,0 l/m 0,4 km/h (0 Bft) 0 min 6,8 km/h (2 Bft)
02.05.2010 22:12 18,6 C 9,3 C 0,0 UV-I 0,0 C 54 % 90 % 0 % 1009,1 hPa 0,0 l/m 0,4 km/h (0 Bft) 0 min 0,0 km/h (0 Bft)
02.05.2010 22:14 18,6 C 9,3 C 0,0 UV-I 0,0 C 54 % 90 % 0 % 1009,1 hPa 0,0 l/m 0,4 km/h (0 Bft) 0 min 0,0 km/h (0 Bft)
02.05.2010 22:16 18,6 C 9,3 C 0,0 UV-I 0,0 C 54 % 90 % 0 % 1009,1 hPa 0,0 l/m 0,4 km/h (0 Bft) 0 min 0,0 km/h (0 Bft)
02.05.2010 22:20 18,6 C 9,2 C 0,0 UV-I 0,0 C 54 % 90 % 0 % 1009,1 hPa 0,0 l/m 0,4 km/h (0 Bft) 0 min 0,0 km/h (0 Bft)
02.05.2010 22:22 18,6 C 9,2 C 0,0 UV-I 0,0 C 54 % 90 % 0 % 1009,1 hPa 0,0 l/m 0,0 km/h (0 Bft) 0 min 0,0 km/h (0 Bft)
02.05.2010 22:24 18,6 C 9,2 C 0,0 UV-I 0,0 C 54 % 90 % 0 % 1009,1 hPa 0,0 l/m 0,0 km/h (0 Bft) 0 min 0,0 km/h (0 Bft)
02.05.2010 22:26 18,6 C 9,3 C 0,0 UV-I 0,0 C 54 % 90 % 0 % 1009,1 hPa 0,0 l/m 0,0 km/h (0 Bft) 0 min 0,0 km/h (0 Bft)
02.05.2010 22:28 18,6 C 9,2 C 0,0 UV-I 0,0 C 54 % 90 % 0 % 1009,1 hPa 0,0 l/m 0,0 km/h (0 Bft) 0 min 0,0 km/h (0 Bft)
02.05.2010 22:30 18,6 C 9,2 C 0,0 UV-I 0,0 C 54 % 90 % 0 % 1009,1 hPa 0,0 l/m 0,0 km/h (0 Bft) 0 min 4,8 km/h (1 Bft)
02.05.2010 22:32 18,6 C 9,1 C 0,0 UV-I 0,0 C 54 % 90 % 0 % 1009,0 hPa 0,0 l/m 0,4 km/h (0 Bft) 0 min 0,0 km/h (0 Bft)
02.05.2010 22:34 18,6 C 9,1 C 0,0 UV-I 0,0 C 54 % 90 % 0 % 1009,0 hPa 0,0 l/m 0,4 km/h (0 Bft) 0 min 0,0 km/h (0 Bft)
02.05.2010 22:36 18,6 C 9,1 C 0,0 UV-I 0,0 C 54 % 90 % 0 % 1009,0 hPa 0,0 l/m 0,4 km/h (0 Bft) 0 min 0,0 km/h (0 Bft)
02.05.2010 22:38 18,6 C 9,0 C 0,0 UV-I 0,0 C 54 % 91 % 0 % 1009,0 hPa 0,0 l/m 0,4 km/h (0 Bft) 0 min 0,0 km/h (0 Bft)
02.05.2010 22:40 18,5 C 9,1 C 0,0 UV-I 0,0 C 54 % 90 % 0 % 1009,0 hPa 0,0 l/m 0,4 km/h (0 Bft) 0 min 0,0 km/h (0 Bft)
02.05.2010 22:44 18,5 C 8,9 C 0,0 UV-I 0,0 C 54 % 91 % 0 % 1009,0 hPa 0,0 l/m 0,0 km/h (0 Bft) 0 min 0,0 km/h (0 Bft)
02.05.2010 22:46 18,5 C 8,9 C 0,0 UV-I 0,0 C 54 % 91 % 0 % 1009,0 hPa 0,0 l/m 0,0 km/h (0 Bft) 0 min 0,0 km/h (0 Bft)
02.05.2010 22:50 18,5 C 8,8 C 0,0 UV-I 0,0 C 54 % 91 % 0 % 1009,0 hPa 0,0 l/m 0,0 km/h (0 Bft) 0 min 0,0 km/h (0 Bft)
02.05.2010 22:52 18,5 C 8,9 C 0,0 UV-I 0,0 C 54 % 91 % 0 % 1008,9 hPa 0,0 l/m 0,4 km/h (0 Bft) 0 min 0,0 km/h (0 Bft)
02.05.2010 22:54 18,5 C 8,8 C 0,0 UV-I 0,0 C 54 % 91 % 0 % 1008,9 hPa 0,0 l/m 0,4 km/h (0 Bft) 0 min 0,0 km/h (0 Bft)
02.05.2010 22:56 18,5 C 8,7 C 0,0 UV-I 0,0 C 54 % 91 % 0 % 1008,9 hPa 0,0 l/m 0,4 km/h (0 Bft) 0 min 0,0 km/h (0 Bft)
02.05.2010 23:02 18,5 C 8,7 C 0,0 UV-I 0,0 C 54 % 91 % 0 % 1008,9 hPa 0,0 l/m 0,4 km/h (0 Bft) 0 min 4,8 km/h (1 Bft)
02.05.2010 23:06 18,5 C 8,7 C 0,0 UV-I 0,0 C 54 % 91 % 0 % 1008,9 hPa 0,0 l/m 0,8 km/h (0 Bft) 0 min 4,4 km/h (1 Bft)
02.05.2010 23:12 18,4 C 8,7 C 0,0 UV-I 0,0 C 54 % 91 % 0 % 1008,9 hPa 0,0 l/m 0,8 km/h (0 Bft) 0 min 0,0 km/h (0 Bft)
02.05.2010 23:14 18,4 C 8,5 C 0,0 UV-I 0,0 C 54 % 92 % 0 % 1008,9 hPa 0,0 l/m 0,8 km/h (0 Bft) 0 min 0,0 km/h (0 Bft)
02.05.2010 23:16 18,4 C 8,5 C 0,0 UV-I 0,0 C 54 % 92 % 0 % 1008,9 hPa 0,0 l/m 0,4 km/h (0 Bft) 0 min 0,0 km/h (0 Bft)
02.05.2010 23:18 18,4 C 8,5 C 0,0 UV-I 0,0 C 54 % 92 % 0 % 1008,9 hPa 0,0 l/m 0,4 km/h (0 Bft) 0 min 0,0 km/h (0 Bft)
02.05.2010 23:20 18,4 C 8,4 C 0,0 UV-I 0,0 C 54 % 91 % 0 % 1008,9 hPa 0,0 l/m 0,4 km/h (0 Bft) 0 min 0,0 km/h (0 Bft)
02.05.2010 23:28 18,4 C 8,4 C 0,0 UV-I 0,0 C 54 % 91 % 0 % 1008,9 hPa 0,0 l/m 0,4 km/h (0 Bft) 0 min 4,8 km/h (1 Bft)
02.05.2010 23:32 18,4 C 8,4 C 0,0 UV-I 0,0 C 54 % 91 % 0 % 1009,1 hPa 0,0 l/m 0,4 km/h (0 Bft) 0 min 0,0 km/h (0 Bft)
02.05.2010 23:34 18,4 C 8,4 C 0,0 UV-I 0,0 C 54 % 91 % 0 % 1009,1 hPa 0,0 l/m 0,4 km/h (0 Bft) 0 min 0,0 km/h (0 Bft)
02.05.2010 23:36 18,4 C 8,3 C 0,0 UV-I 0,0 C 54 % 92 % 0 % 1009,1 hPa 0,0 l/m 0,0 km/h (0 Bft) 0 min 0,0 km/h (0 Bft)
02.05.2010 23:38 18,4 C 8,3 C 0,0 UV-I 0,0 C 54 % 92 % 0 % 1009,1 hPa 0,0 l/m 0,0 km/h (0 Bft) 0 min 0,0 km/h (0 Bft)
02.05.2010 23:44 18,4 C 8,2 C 0,0 UV-I 0,0 C 54 % 92 % 0 % 1009,1 hPa 0,0 l/m 0,0 km/h (0 Bft) 0 min 0,0 km/h (0 Bft)
02.05.2010 23:48 18,4 C 8,3 C 0,0 UV-I 0,0 C 54 % 92 % 0 % 1009,1 hPa 0,0 l/m 0,0 km/h (0 Bft) 0 min 0,0 km/h (0 Bft)
02.05.2010 23:50 18,4 C 8,2 C 0,0 UV-I 0,0 C 54 % 92 % 0 % 1009,1 hPa 0,0 l/m 0,0 km/h (0 Bft) 0 min 0,0 km/h (0 Bft)
02.05.2010 23:52 18,4 C 8,2 C 0,0 UV-I 0,0 C 54 % 92 % 0 % 1008,9 hPa 0,0 l/m 0,0 km/h (0 Bft) 0 min 0,0 km/h (0 Bft)
02.05.2010 23:54 18,4 C 8,1 C 0,0 UV-I 0,0 C 54 % 92 % 0 % 1008,9 hPa 0,0 l/m 0,0 km/h (0 Bft) 0 min 0,0 km/h (0 Bft)
02.05.2010 23:56 18,4 C 8,1 C 0,0 UV-I 0,0 C 54 % 92 % 0 % 1008,9 hPa 0,0 l/m 0,0 km/h (0 Bft) 0 min 0,0 km/h (0 Bft)
02.05.2010 23:58 18,4 C 8,1 C 0,0 UV-I 0,0 C 54 % 92 % 0 % 1008,9 hPa 0,0 l/m 0,0 km/h (0 Bft) 0 min 0,0 km/h (0 Bft)
_ Min-Zeit 23:12 03:42 00:00 00:00 15:46 15:36 00:00 18:12 - 00:00 - 00:00
Minimum _ 18,4 C 8,0 C 0,0 UV-I 0,0 C 46 % 65 % 0 % 1008,2 hPa - 0,0 km/h (0 Bft) - 0,0 km/h (0 Bft)
_ Max-Zeit 15:22 14:50 14:20 14:52 21:02 23:14 14:02 00:00 13:28 15:42 14:00 15:42
Maximum _ 21,9 C 15,9 C 10,9 UV-I 6,8 C 54 % 92 % 100 % 1012,4 hPa 1,5 l/m 11,6 km/h
W-SW (2 Bft)
2 min 44,6 km/h
W-SW (6 Bft)
Durchschnitt _ 19,4 C 10,5 C 1,0 UV-I 0,5 C 51 % 88 % 11 % 1010,0 hPa #11,4 l/m 1,3 km/h (1 Bft) #1:26 h 2,4 km/h (1 Bft)
© 2012 W. Hausmann